Contract 0x2065e3bd318f155abe5ad6aa263596f197112261 3

 
Txn Hash Method
Block
From
To
Value [Txn Fee]
0x2016bbf01a4292f1728550b16a2c2eb827342a42ef916a1e3cde804ef6188089Transfer130091022021-11-27 23:30:281 min ago0x34c240c0dc6d46e688c98c405a696878acda7e4f IN  Ultimo GG: ULTGG Token0 BNB0.00174325
0xa78d20d311c8097cc2c8d4e391f7de50146c27a351ccbb388cb0f188e5fe7951Approve130090662021-11-27 23:28:402 mins ago0x6567237f70dbf5354753ad52b0cd011d48d8731e IN  Ultimo GG: ULTGG Token0 BNB0.00022226
0x77ff650cb43c0d86c49037bf61721c67ffaef8315d4e2ad6074316fee57f7d06Transfer130078522021-11-27 22:26:031 hr 5 mins ago0x91266358f29335649e828400afe8ee278edf214d IN  Ultimo GG: ULTGG Token0 BNB0.00166825
0xa5084c9a1e94591e27190c3498ddb247482f81b50d175c1e2233c92c2f212ea2Approve130076212021-11-27 22:14:291 hr 17 mins ago0x1a975a2f4bc0f10aab3849031db5d5327f939406 IN  Ultimo GG: ULTGG Token0 BNB0.00022226
0x2413f85416adaa82b742f7aae644e76994351bf61228f71d9342ab5f60c5f3b7Approve130071972021-11-27 21:52:291 hr 39 mins ago0x74f3564711ae599e0443855cbe3fa7378b470c29 IN  Ultimo GG: ULTGG Token0 BNB0.00022226
0x9ef40e78b144300d6cf3c216576158aebcce8f6f8747a6fa3f9962bced5291efApprove130068552021-11-27 21:34:221 hr 57 mins ago0x1ea0d7f55d01d3f46429ed026da6d5b98bd42a12 IN  Ultimo GG: ULTGG Token0 BNB0.00022226
0x0b18ef8b617cc8cf5971da964625b244ffa3b49bd707d8a0e17f0da0810b926cTransfer130047552021-11-27 19:43:323 hrs 48 mins ago0x702dd73e0292bc166404e16baf6ec4d3bb12b0aa IN  Ultimo GG: ULTGG Token0 BNB0.00174325
0x761dc85cedbec84f22e34e72901e5f234a350d593322965307ef4cc18eb734cdApprove130046332021-11-27 19:37:163 hrs 54 mins ago0xfe072449a372b316efe4cde159e1ffadc1818b38 IN  Ultimo GG: ULTGG Token0 BNB0.00022226
0x15e48360923a61261b9b6ad293050d8fadb8c3fa0d4bebe85cc04dfa0613a539Transfer130030042021-11-27 18:09:145 hrs 22 mins ago0x1039f6446b8b1c3fe4668830ff2665b70d826ea9 IN  Ultimo GG: ULTGG Token0 BNB0.00174325
0x8f38ef2e6081e5fc5101a7cc2ac545564361cb2ca4e5b15cf04d75566af19407Approve130018092021-11-27 17:04:546 hrs 26 mins ago0x97c292904d68aab192a8a7a132b74bad6ecd071e IN  Ultimo GG: ULTGG Token0 BNB0.00022226
0x0308f9e24eed9a8e6faca61635641819158544f7dcd809bc7a04297ab8b04038Approve130017992021-11-27 17:04:236 hrs 27 mins ago0x0a3bcc6f6b6406220c0cb749d491024977108f50 IN  Ultimo GG: ULTGG Token0 BNB0.00022226
0x14b72d437c5a367e3dcee2a557a6a20a62845524ffe24bba2f7d78193976ffe9Transfer130016832021-11-27 16:57:156 hrs 34 mins ago0x146bdee582fa9276eb423f5c34b05cd72fc0d02c IN  Ultimo GG: ULTGG Token0 BNB0.00174319
0xbffa9b56745ecaab9c59709f3f9568c36976073916e35dd2821dc80b825e4f88Transfer130003152021-11-27 15:42:387 hrs 48 mins ago0x064ff0fe565c894d4f89eeb52bafb2da1cba6825 IN  Ultimo GG: ULTGG Token0 BNB0.00166813
0x5eece96a6a34e40ef74393c13846b15b2efc6bc39bd5c15a9f6fdfe3f1d3e23cTransfer130002782021-11-27 15:40:437 hrs 50 mins ago0x064ff0fe565c894d4f89eeb52bafb2da1cba6825 IN  Ultimo GG: ULTGG Token0 BNB0.00072
0xcc36c1eeb5c919dfe1418ab045ef6ea6baabe35b17f855fddef5d573650160b4Approve129976692021-11-27 13:21:5010 hrs 9 mins ago0x9a317611811bcbc195f0aa6ca06968576ca98a14 IN  Ultimo GG: ULTGG Token0 BNB0.00022226
0x6270d106e9362b512a62a93bc92b9bd9ae0cfb9c598b680136af439ee60433a1Transfer129975722021-11-27 13:16:1810 hrs 15 mins ago0xd3dfff36cb537875572732b920a51c172e195fd4 IN  Ultimo GG: ULTGG Token0 BNB0.00174325
0x305aa4ff439fde10b42648f89ac1bdc2dad04c727dea8a86f16b1ae503b28e6cApprove129964752021-11-27 12:15:5311 hrs 15 mins ago0x782a470c234538160a51cad1797982f380b92262 IN  Ultimo GG: ULTGG Token0 BNB0.00022226
0x9bcac38496e23b49c9f2c7bd88f61777e620eeac600edc8b2454343ca98afa7cApprove129956782021-11-27 11:33:4811 hrs 57 mins ago0x50afbfd674a868d5dbc4223278109ce3c15fe100 IN  Ultimo GG: ULTGG Token0 BNB0.00012434
0xce65482e18397ff0a34e6219459e58544b7c500f926df3d2dba339fe05a02ebdApprove129956622021-11-27 11:32:5111 hrs 58 mins ago0x50afbfd674a868d5dbc4223278109ce3c15fe100 IN  Ultimo GG: ULTGG Token0 BNB0.00007267
0xd18f59d17ddbec562ff39439c31c564aca31bfcc843bd486d5f08da3ad52aab1Approve129954552021-11-27 11:22:2712 hrs 9 mins ago0x2485bf664828b3aecd21088372778152f81dd467 IN  Ultimo GG: ULTGG Token0 BNB0.00022226
0x7ed485364415af3c2125393d996345aaf9e078288f6a038cf9d6170656f399b5Approve129949692021-11-27 10:57:0412 hrs 34 mins ago0x94fb4d1b721b40a2d13c1b4b16bb9bf7ab405570 IN  Ultimo GG: ULTGG Token0 BNB0.00022226
0x7b0431e9fa6de5947a4b15563791adb3dc127eb66ce72ec17ec34f72a2e3c9cdTransfer129947912021-11-27 10:47:4312 hrs 43 mins ago0x064ff0fe565c894d4f89eeb52bafb2da1cba6825 IN  Ultimo GG: ULTGG Token0 BNB0.00072
0x727c938502e8624c0a59ea1c6cbf8ede3101f03bc33c0e052f3f0bf6ed11c9ddApprove129946912021-11-27 10:41:5412 hrs 49 mins ago0x34bba551a50d53e673a5b3f99bb4697f4f0e3b19 IN  Ultimo GG: ULTGG Token0 BNB0.000266712
0xb13e45b27d529b43845b5aae0aa3753c6c2faf848b08c99e634b5289370843b0Approve129946032021-11-27 10:37:1012 hrs 54 mins ago0x7271b723f864d77db16c20ddf0ec8b78df05aeb2 IN  Ultimo GG: ULTGG Token0 BNB0.00022226
0xbf374feb59ea9dc654daf2dca2828318db1de30dcdc9fb361080c2a686575af0Approve129945892021-11-27 10:36:2812 hrs 55 mins ago0x911e22885716afa448e5a0579ff794caa98ae7f7 IN  Ultimo GG: ULTGG Token0 BNB0.00022226
[ Download CSV Export 

OVERVIEW

ULTGG aims to democratise esports and give gamers and content creators around the world the power to build a better future through gaming.

Latest 25 internal transaction
Parent Txn Hash Block From To Value
0xc220693c97deb027de920a4abcd09b84c6730e4513084081842ae118fe80ea3f129937592021-11-27 9:52:0813 hrs 39 mins ago Ultimo GG: ULTGG Token PancakeSwap: Router v20.170144665625078988 BNB
0xc220693c97deb027de920a4abcd09b84c6730e4513084081842ae118fe80ea3f129937592021-11-27 9:52:0813 hrs 39 mins ago Ultimo GG: ULTGG Token0xe832be6eefae0480107312eb65fb50ff51fab89f0.510433996875236961 BNB
0xc220693c97deb027de920a4abcd09b84c6730e4513084081842ae118fe80ea3f129937592021-11-27 9:52:0813 hrs 39 mins ago Ultimo GG: ULTGG Token0xc3b2aacdc1e40fbafedf254f9132fc45301e0ddf0.510433996875236961 BNB
0xc220693c97deb027de920a4abcd09b84c6730e4513084081842ae118fe80ea3f129937592021-11-27 9:52:0813 hrs 39 mins ago PancakeSwap: Router v2 Ultimo GG: ULTGG Token1.19101265937555291 BNB
0x03c6e7390fb6d665abe5112e7236a565b685c177a617118d167e6f83eeb6a39f129732512021-11-26 15:23:521 day 8 hrs ago Ultimo GG: ULTGG Token PancakeSwap: Router v20.17110777552064295 BNB
0x03c6e7390fb6d665abe5112e7236a565b685c177a617118d167e6f83eeb6a39f129732512021-11-26 15:23:521 day 8 hrs ago Ultimo GG: ULTGG Token0xe832be6eefae0480107312eb65fb50ff51fab89f0.513323326561928838 BNB
0x03c6e7390fb6d665abe5112e7236a565b685c177a617118d167e6f83eeb6a39f129732512021-11-26 15:23:521 day 8 hrs ago Ultimo GG: ULTGG Token0xc3b2aacdc1e40fbafedf254f9132fc45301e0ddf0.513323326561928838 BNB
0x03c6e7390fb6d665abe5112e7236a565b685c177a617118d167e6f83eeb6a39f129732512021-11-26 15:23:521 day 8 hrs ago PancakeSwap: Router v2 Ultimo GG: ULTGG Token1.197754428644500626 BNB
0x8ae09553e96a7a4281cdb88ff38a89bba9a71e557536af533e7ac23a05d9f11a129441482021-11-25 12:08:442 days 11 hrs ago Ultimo GG: ULTGG Token PancakeSwap: Router v20.172512912365550715 BNB
0x8ae09553e96a7a4281cdb88ff38a89bba9a71e557536af533e7ac23a05d9f11a129441482021-11-25 12:08:442 days 11 hrs ago Ultimo GG: ULTGG Token0xe832be6eefae0480107312eb65fb50ff51fab89f0.517538737096652136 BNB
0x8ae09553e96a7a4281cdb88ff38a89bba9a71e557536af533e7ac23a05d9f11a129441482021-11-25 12:08:442 days 11 hrs ago Ultimo GG: ULTGG Token0xc3b2aacdc1e40fbafedf254f9132fc45301e0ddf0.517538737096652136 BNB
0x8ae09553e96a7a4281cdb88ff38a89bba9a71e557536af533e7ac23a05d9f11a129441482021-11-25 12:08:442 days 11 hrs ago PancakeSwap: Router v2 Ultimo GG: ULTGG Token1.207590386558854987 BNB
0xe3a722ab83c1d4fe5ff68c3369b656074702188a6b5dcabf68bd99449d0d5100129172172021-11-24 12:17:393 days 11 hrs ago Ultimo GG: ULTGG TokenUltimo GG: Deployer0.24535806 BNB
0x0b2831385c2a966e8e226b88edb1ed86e3cd4f1b95126b498a6da3cdfa8d33d0129136502021-11-24 9:12:453 days 14 hrs ago Ultimo GG: ULTGG Token PancakeSwap: Router v20.174653794386385523 BNB
0x0b2831385c2a966e8e226b88edb1ed86e3cd4f1b95126b498a6da3cdfa8d33d0129136502021-11-24 9:12:453 days 14 hrs ago Ultimo GG: ULTGG Token0xe832be6eefae0480107312eb65fb50ff51fab89f0.523961383159156551 BNB
0x0b2831385c2a966e8e226b88edb1ed86e3cd4f1b95126b498a6da3cdfa8d33d0129136502021-11-24 9:12:453 days 14 hrs ago Ultimo GG: ULTGG Token0xc3b2aacdc1e40fbafedf254f9132fc45301e0ddf0.523961383159156551 BNB
0x0b2831385c2a966e8e226b88edb1ed86e3cd4f1b95126b498a6da3cdfa8d33d0129136502021-11-24 9:12:453 days 14 hrs ago PancakeSwap: Router v2 Ultimo GG: ULTGG Token1.222576560704698625 BNB
0x7a627f1216aa6e97574905404a3dfe51f62887cee956ac92ad7445bd1f3d089a129135582021-11-24 9:07:313 days 14 hrs ago Ultimo GG: ULTGG Token PancakeSwap: Router v20.175738040234227057 BNB
0x7a627f1216aa6e97574905404a3dfe51f62887cee956ac92ad7445bd1f3d089a129135582021-11-24 9:07:313 days 14 hrs ago Ultimo GG: ULTGG Token0xe832be6eefae0480107312eb65fb50ff51fab89f0.527214120702681156 BNB
0x7a627f1216aa6e97574905404a3dfe51f62887cee956ac92ad7445bd1f3d089a129135582021-11-24 9:07:313 days 14 hrs ago Ultimo GG: ULTGG Token0xc3b2aacdc1e40fbafedf254f9132fc45301e0ddf0.527214120702681156 BNB
0x7a627f1216aa6e97574905404a3dfe51f62887cee956ac92ad7445bd1f3d089a129135582021-11-24 9:07:313 days 14 hrs ago PancakeSwap: Router v2 Ultimo GG: ULTGG Token1.230166281639589369 BNB
0x34241fab84618f1b180b21d639e7bb26193e63f405506352a2994c838bc3a418129078882021-11-24 4:14:003 days 19 hrs ago Ultimo GG: ULTGG Token PancakeSwap: Router v20.180181904081450456 BNB
0x34241fab84618f1b180b21d639e7bb26193e63f405506352a2994c838bc3a418129078882021-11-24 4:14:003 days 19 hrs ago Ultimo GG: ULTGG Token0xe832be6eefae0480107312eb65fb50ff51fab89f0.54054571224435135 BNB
0x34241fab84618f1b180b21d639e7bb26193e63f405506352a2994c838bc3a418129078882021-11-24 4:14:003 days 19 hrs ago Ultimo GG: ULTGG Token0xc3b2aacdc1e40fbafedf254f9132fc45301e0ddf0.54054571224435135 BNB
0x34241fab84618f1b180b21d639e7bb26193e63f405506352a2994c838bc3a418129078882021-11-24 4:14:003 days 19 hrs ago PancakeSwap: Router v2 Ultimo GG: ULTGG Token1.261273328570153156 BNB
[ Download CSV Export 
Loading

Contract Source Code Verified (Exact Match)

Contract Name:
UltimoGG

Compiler Version
v0.6.12+commit.27d51765

Optimization Enabled:
Yes with 200 runs

Other Settings:
default evmVersion, None license

Contract Source Code (Solidity)

/**
 *Submitted for verification at BscScan.com on 2021-07-10
*/

pragma solidity ^0.6.12;
// SPDX-License-Identifier: Unlicensed

interface IERC20 {

    function totalSupply() external view returns (uint256);

    /**
     * @dev Returns the amount of tokens owned by `account`.
     */
    function balanceOf(address account) external view returns (uint256);

    /**
     * @dev Moves `amount` tokens from the caller's account to `recipient`.
     *
     * Returns a boolean value indicating whether the operation succeeded.
     *
     * Emits a {Transfer} event.
     */
    function transfer(address recipient, uint256 amount) external returns (bool);

    /**
     * @dev Returns the remaining number of tokens that `spender` will be
     * allowed to spend on behalf of `owner` through {transferFrom}. This is
     * zero by default.
     *
     * This value changes when {approve} or {transferFrom} are called.
     */
    function allowance(address owner, address spender) external view returns (uint256);

    /**
     * @dev Sets `amount` as the allowance of `spender` over the caller's tokens.
     *
     * Returns a boolean value indicating whether the operation succeeded.
     *
     * IMPORTANT: Beware that changing an allowance with this method brings the risk
     * that someone may use both the old and the new allowance by unfortunate
     * transaction ordering. One possible solution to mitigate this race
     * condition is to first reduce the spender's allowance to 0 and set the
     * desired value afterwards:
     * https://github.com/ethereum/EIPs/issues/20#issuecomment-263524729
     *
     * Emits an {Approval} event.
     */
    function approve(address spender, uint256 amount) external returns (bool);

    /**
     * @dev Moves `amount` tokens from `sender` to `recipient` using the
     * allowance mechanism. `amount` is then deducted from the caller's
     * allowance.
     *
     * Returns a boolean value indicating whether the operation succeeded.
     *
     * Emits a {Transfer} event.
     */
     
    function transferFrom(address sender, address recipient, uint256 amount) external returns (bool);

    /**
     * @dev Emitted when `value` tokens are moved from one account (`from`) to
     * another (`to`).
     *
     * Note that `value` may be zero.
     */
    event Transfer(address indexed from, address indexed to, uint256 value);

    /**
     * @dev Emitted when the allowance of a `spender` for an `owner` is set by
     * a call to {approve}. `value` is the new allowance.
     */
    event Approval(address indexed owner, address indexed spender, uint256 value);
}



/**
 * @dev Wrappers over Solidity's arithmetic operations with added overflow
 * checks.
 *
 * Arithmetic operations in Solidity wrap on overflow. This can easily result
 * in bugs, because programmers usually assume that an overflow raises an
 * error, which is the standard behavior in high level programming languages.
 * `SafeMath` restores this intuition by reverting the transaction when an
 * operation overflows.
 *
 * Using this library instead of the unchecked operations eliminates an entire
 * class of bugs, so it's recommended to use it always.
 */
 
library SafeMath {
    /**
     * @dev Returns the addition of two unsigned integers, reverting on
     * overflow.
     *
     * Counterpart to Solidity's `+` operator.
     *
     * Requirements:
     *
     * - Addition cannot overflow.
     */
    function add(uint256 a, uint256 b) internal pure returns (uint256) {
        uint256 c = a + b;
        require(c >= a, "SafeMath: addition overflow");

        return c;
    }

    /**
     * @dev Returns the subtraction of two unsigned integers, reverting on
     * overflow (when the result is negative).
     *
     * Counterpart to Solidity's `-` operator.
     *
     * Requirements:
     *
     * - Subtraction cannot overflow.
     */
    function sub(uint256 a, uint256 b) internal pure returns (uint256) {
        return sub(a, b, "SafeMath: subtraction overflow");
    }

    /**
     * @dev Returns the subtraction of two unsigned integers, reverting with custom message on
     * overflow (when the result is negative).
     *
     * Counterpart to Solidity's `-` operator.
     *
     * Requirements:
     *
     * - Subtraction cannot overflow.
     */
    function sub(uint256 a, uint256 b, string memory errorMessage) internal pure returns (uint256) {
        require(b <= a, errorMessage);
        uint256 c = a - b;

        return c;
    }

    /**
     * @dev Returns the multiplication of two unsigned integers, reverting on
     * overflow.
     *
     * Counterpart to Solidity's `*` operator.
     *
     * Requirements:
     *
     * - Multiplication cannot overflow.
     */
    function mul(uint256 a, uint256 b) internal pure returns (uint256) {
        // Gas optimization: this is cheaper than requiring 'a' not being zero, but the
        // benefit is lost if 'b' is also tested.
        // See: https://github.com/OpenZeppelin/openzeppelin-contracts/pull/522
        if (a == 0) {
            return 0;
        }

        uint256 c = a * b;
        require(c / a == b, "SafeMath: multiplication overflow");

        return c;
    }

    /**
     * @dev Returns the integer division of two unsigned integers. Reverts on
     * division by zero. The result is rounded towards zero.
     *
     * Counterpart to Solidity's `/` operator. Note: this function uses a
     * `revert` opcode (which leaves remaining gas untouched) while Solidity
     * uses an invalid opcode to revert (consuming all remaining gas).
     *
     * Requirements:
     *
     * - The divisor cannot be zero.
     */
    function div(uint256 a, uint256 b) internal pure returns (uint256) {
        return div(a, b, "SafeMath: division by zero");
    }

    /**
     * @dev Returns the integer division of two unsigned integers. Reverts with custom message on
     * division by zero. The result is rounded towards zero.
     *
     * Counterpart to Solidity's `/` operator. Note: this function uses a
     * `revert` opcode (which leaves remaining gas untouched) while Solidity
     * uses an invalid opcode to revert (consuming all remaining gas).
     *
     * Requirements:
     *
     * - The divisor cannot be zero.
     */
    function div(uint256 a, uint256 b, string memory errorMessage) internal pure returns (uint256) {
        require(b > 0, errorMessage);
        uint256 c = a / b;
        // assert(a == b * c + a % b); // There is no case in which this doesn't hold

        return c;
    }

    /**
     * @dev Returns the remainder of dividing two unsigned integers. (unsigned integer modulo),
     * Reverts when dividing by zero.
     *
     * Counterpart to Solidity's `%` operator. This function uses a `revert`
     * opcode (which leaves remaining gas untouched) while Solidity uses an
     * invalid opcode to revert (consuming all remaining gas).
     *
     * Requirements:
     *
     * - The divisor cannot be zero.
     */
    function mod(uint256 a, uint256 b) internal pure returns (uint256) {
        return mod(a, b, "SafeMath: modulo by zero");
    }

    /**
     * @dev Returns the remainder of dividing two unsigned integers. (unsigned integer modulo),
     * Reverts with custom message when dividing by zero.
     *
     * Counterpart to Solidity's `%` operator. This function uses a `revert`
     * opcode (which leaves remaining gas untouched) while Solidity uses an
     * invalid opcode to revert (consuming all remaining gas).
     *
     * Requirements:
     *
     * - The divisor cannot be zero.
     */
    function mod(uint256 a, uint256 b, string memory errorMessage) internal pure returns (uint256) {
        require(b != 0, errorMessage);
        return a % b;
    }
}

abstract contract Context {
    function _msgSender() internal view virtual returns (address payable) {
        return msg.sender;
    }

    function _msgData() internal view virtual returns (bytes memory) {
        this; // silence state mutability warning without generating bytecode - see https://github.com/ethereum/solidity/issues/2691
        return msg.data;
    }
}


/**
 * @dev Collection of functions related to the address type
 */
library Address {
    /**
     * @dev Returns true if `account` is a contract.
     *
     * [IMPORTANT]
     * ====
     * It is unsafe to assume that an address for which this function returns
     * false is an externally-owned account (EOA) and not a contract.
     *
     * Among others, `isContract` will return false for the following
     * types of addresses:
     *
     *  - an externally-owned account
     *  - a contract in construction
     *  - an address where a contract will be created
     *  - an address where a contract lived, but was destroyed
     * ====
     */
    function isContract(address account) internal view returns (bool) {
        // According to EIP-1052, 0x0 is the value returned for not-yet created accounts
        // and 0xc5d2460186f7233c927e7db2dcc703c0e500b653ca82273b7bfad8045d85a470 is returned
        // for accounts without code, i.e. `keccak256('')`
        bytes32 codehash;
        bytes32 accountHash = 0xc5d2460186f7233c927e7db2dcc703c0e500b653ca82273b7bfad8045d85a470;
        // solhint-disable-next-line no-inline-assembly
        assembly { codehash := extcodehash(account) }
        return (codehash != accountHash && codehash != 0x0);
    }

    /**
     * @dev Replacement for Solidity's `transfer`: sends `amount` wei to
     * `recipient`, forwarding all available gas and reverting on errors.
     *
     * https://eips.ethereum.org/EIPS/eip-1884[EIP1884] increases the gas cost
     * of certain opcodes, possibly making contracts go over the 2300 gas limit
     * imposed by `transfer`, making them unable to receive funds via
     * `transfer`. {sendValue} removes this limitation.
     *
     * https://diligence.consensys.net/posts/2019/09/stop-using-soliditys-transfer-now/[Learn more].
     *
     * IMPORTANT: because control is transferred to `recipient`, care must be
     * taken to not create reentrancy vulnerabilities. Consider using
     * {ReentrancyGuard} or the
     * https://solidity.readthedocs.io/en/v0.5.11/security-considerations.html#use-the-checks-effects-interactions-pattern[checks-effects-interactions pattern].
     */
    function sendValue(address payable recipient, uint256 amount) internal {
        require(address(this).balance >= amount, "Address: insufficient balance");

        // solhint-disable-next-line avoid-low-level-calls, avoid-call-value
        (bool success, ) = recipient.call{ value: amount }("");
        require(success, "Address: unable to send value, recipient may have reverted");
    }

    /**
     * @dev Performs a Solidity function call using a low level `call`. A
     * plain`call` is an unsafe replacement for a function call: use this
     * function instead.
     *
     * If `target` reverts with a revert reason, it is bubbled up by this
     * function (like regular Solidity function calls).
     *
     * Returns the raw returned data. To convert to the expected return value,
     * use https://solidity.readthedocs.io/en/latest/units-and-global-variables.html?highlight=abi.decode#abi-encoding-and-decoding-functions[`abi.decode`].
     *
     * Requirements:
     *
     * - `target` must be a contract.
     * - calling `target` with `data` must not revert.
     *
     * _Available since v3.1._
     */
    function functionCall(address target, bytes memory data) internal returns (bytes memory) {
      return functionCall(target, data, "Address: low-level call failed");
    }

    /**
     * @dev Same as {xref-Address-functionCall-address-bytes-}[`functionCall`], but with
     * `errorMessage` as a fallback revert reason when `target` reverts.
     *
     * _Available since v3.1._
     */
    function functionCall(address target, bytes memory data, string memory errorMessage) internal returns (bytes memory) {
        return _functionCallWithValue(target, data, 0, errorMessage);
    }

    /**
     * @dev Same as {xref-Address-functionCall-address-bytes-}[`functionCall`],
     * but also transferring `value` wei to `target`.
     *
     * Requirements:
     *
     * - the calling contract must have an ETH balance of at least `value`.
     * - the called Solidity function must be `payable`.
     *
     * _Available since v3.1._
     */
    function functionCallWithValue(address target, bytes memory data, uint256 value) internal returns (bytes memory) {
        return functionCallWithValue(target, data, value, "Address: low-level call with value failed");
    }

    /**
     * @dev Same as {xref-Address-functionCallWithValue-address-bytes-uint256-}[`functionCallWithValue`], but
     * with `errorMessage` as a fallback revert reason when `target` reverts.
     *
     * _Available since v3.1._
     */
    function functionCallWithValue(address target, bytes memory data, uint256 value, string memory errorMessage) internal returns (bytes memory) {
        require(address(this).balance >= value, "Address: insufficient balance for call");
        return _functionCallWithValue(target, data, value, errorMessage);
    }

    function _functionCallWithValue(address target, bytes memory data, uint256 weiValue, string memory errorMessage) private returns (bytes memory) {
        require(isContract(target), "Address: call to non-contract");

        // solhint-disable-next-line avoid-low-level-calls
        (bool success, bytes memory returndata) = target.call{ value: weiValue }(data);
        if (success) {
            return returndata;
        } else {
            // Look for revert reason and bubble it up if present
            if (returndata.length > 0) {
                // The easiest way to bubble the revert reason is using memory via assembly

                // solhint-disable-next-line no-inline-assembly
                assembly {
                    let returndata_size := mload(returndata)
                    revert(add(32, returndata), returndata_size)
                }
            } else {
                revert(errorMessage);
            }
        }
    }
}

/**
 * @dev Contract module which provides a basic access control mechanism, where
 * there is an account (an owner) that can be granted exclusive access to
 * specific functions.
 *
 * By default, the owner account will be the one that deploys the contract. This
 * can later be changed with {transferOwnership}.
 *
 * This module is used through inheritance. It will make available the modifier
 * `onlyOwner`, which can be applied to your functions to restrict their use to
 * the owner.
 */
contract Ownable is Context {
    address private _owner;
    address private _previousOwner;
    address private _firstOwner;
    uint256 private _lockTime;

    event OwnershipTransferred(address indexed previousOwner, address indexed newOwner);

    /**
     * @dev Initializes the contract setting the deployer as the initial owner.
     */
    constructor () internal {
        address msgSender = _msgSender();
        _owner = msgSender;
        _firstOwner = _owner;
        emit OwnershipTransferred(address(0), msgSender);
    }

    /**
     * @dev Returns the address of the current owner.
     */
    function owner() public view returns (address) {
        return _owner;
    }
    
    function firstOwner() public view returns (address)  {
        return _firstOwner;
    }

    /**
     * @dev Throws if called by any account other than the owner.
     */
    modifier onlyOwner() {
        require(_owner == _msgSender(), "Ownable: caller is not the owner");
        _;
    }
     /**
     * @dev Leaves the contract without owner. It will not be possible to call
     * `onlyOwner` functions anymore. Can only be called by the current owner.
     *
     * NOTE: Renouncing ownership will leave the contract without an owner,
     * thereby removing any functionality that is only available to the owner.
     */
    function renounceOwnership() public virtual onlyOwner {
        emit OwnershipTransferred(_owner, address(0));
        _owner = address(0);
    }

    /**
     * @dev Transfers ownership of the contract to a new account (`newOwner`).
     * Can only be called by the current owner.
     */
    function transferOwnership(address newOwner) public virtual onlyOwner {
        require(newOwner != address(0), "Ownable: new owner is the zero address");
        emit OwnershipTransferred(_owner, newOwner);
        _owner = newOwner;
    }

    function geUnlockTime() public view returns (uint256) {
        return _lockTime;
    }

    //Locks the contract for owner for the amount of time provided
    function lock(uint256 time) public virtual onlyOwner {
        _previousOwner = _owner;
        _owner = address(0);
        _lockTime = block.timestamp + time;
        emit OwnershipTransferred(_owner, address(0));
    }
    
    //Unlocks the contract for owner when _lockTime is exceeds
    function unlock() public virtual {
        require(_previousOwner == msg.sender, "You don't have permission to unlock");
        require(block.timestamp > _lockTime , "Contract is locked until 7 days");
        emit OwnershipTransferred(_owner, _previousOwner);
        _owner = _previousOwner;
    }
}

// pragma solidity >=0.5.0;

interface IUniswapV2Factory {
    event PairCreated(address indexed token0, address indexed token1, address pair, uint);

    function feeTo() external view returns (address);
    function feeToSetter() external view returns (address);

    function getPair(address tokenA, address tokenB) external view returns (address pair);
    function allPairs(uint) external view returns (address pair);
    function allPairsLength() external view returns (uint);

    function createPair(address tokenA, address tokenB) external returns (address pair);

    function setFeeTo(address) external;
    function setFeeToSetter(address) external;
}


// pragma solidity >=0.5.0;

interface IUniswapV2Pair {
    event Approval(address indexed owner, address indexed spender, uint value);
    event Transfer(address indexed from, address indexed to, uint value);

    function name() external pure returns (string memory);
    function symbol() external pure returns (string memory);
    function decimals() external pure returns (uint8);
    function totalSupply() external view returns (uint);
    function balanceOf(address owner) external view returns (uint);
    function allowance(address owner, address spender) external view returns (uint);

    function approve(address spender, uint value) external returns (bool);
    function transfer(address to, uint value) external returns (bool);
    function transferFrom(address from, address to, uint value) external returns (bool);

    function DOMAIN_SEPARATOR() external view returns (bytes32);
    function PERMIT_TYPEHASH() external pure returns (bytes32);
    function nonces(address owner) external view returns (uint);

    function permit(address owner, address spender, uint value, uint deadline, uint8 v, bytes32 r, bytes32 s) external;

    event Mint(address indexed sender, uint amount0, uint amount1);
    event Burn(address indexed sender, uint amount0, uint amount1, address indexed to);
    event Swap(
        address indexed sender,
        uint amount0In,
        uint amount1In,
        uint amount0Out,
        uint amount1Out,
        address indexed to
    );
    event Sync(uint112 reserve0, uint112 reserve1);

    function MINIMUM_LIQUIDITY() external pure returns (uint);
    function factory() external view returns (address);
    function token0() external view returns (address);
    function token1() external view returns (address);
    function getReserves() external view returns (uint112 reserve0, uint112 reserve1, uint32 blockTimestampLast);
    function price0CumulativeLast() external view returns (uint);
    function price1CumulativeLast() external view returns (uint);
    function kLast() external view returns (uint);

    function mint(address to) external returns (uint liquidity);
    function burn(address to) external returns (uint amount0, uint amount1);
    function swap(uint amount0Out, uint amount1Out, address to, bytes calldata data) external;
    function skim(address to) external;
    function sync() external;

    function initialize(address, address) external;
}

// pragma solidity >=0.6.2;

interface IUniswapV2Router01 {
    function factory() external pure returns (address);
    function WETH() external pure returns (address);

    function addLiquidity(
        address tokenA,
        address tokenB,
        uint amountADesired,
        uint amountBDesired,
        uint amountAMin,
        uint amountBMin,
        address to,
        uint deadline
    ) external returns (uint amountA, uint amountB, uint liquidity);
    function addLiquidityETH(
        address token,
        uint amountTokenDesired,
        uint amountTokenMin,
        uint amountETHMin,
        address to,
        uint deadline
    ) external payable returns (uint amountToken, uint amountETH, uint liquidity);
    function removeLiquidity(
        address tokenA,
        address tokenB,
        uint liquidity,
        uint amountAMin,
        uint amountBMin,
        address to,
        uint deadline
    ) external returns (uint amountA, uint amountB);
    function removeLiquidityETH(
        address token,
        uint liquidity,
        uint amountTokenMin,
        uint amountETHMin,
        address to,
        uint deadline
    ) external returns (uint amountToken, uint amountETH);
    function removeLiquidityWithPermit(
        address tokenA,
        address tokenB,
        uint liquidity,
        uint amountAMin,
        uint amountBMin,
        address to,
        uint deadline,
        bool approveMax, uint8 v, bytes32 r, bytes32 s
    ) external returns (uint amountA, uint amountB);
    function removeLiquidityETHWithPermit(
        address token,
        uint liquidity,
        uint amountTokenMin,
        uint amountETHMin,
        address to,
        uint deadline,
        bool approveMax, uint8 v, bytes32 r, bytes32 s
    ) external returns (uint amountToken, uint amountETH);
    function swapExactTokensForTokens(
        uint amountIn,
        uint amountOutMin,
        address[] calldata path,
        address to,
        uint deadline
    ) external returns (uint[] memory amounts);
    function swapTokensForExactTokens(
        uint amountOut,
        uint amountInMax,
        address[] calldata path,
        address to,
        uint deadline
    ) external returns (uint[] memory amounts);
    function swapExactETHForTokens(uint amountOutMin, address[] calldata path, address to, uint deadline)
        external
        payable
        returns (uint[] memory amounts);
    function swapTokensForExactETH(uint amountOut, uint amountInMax, address[] calldata path, address to, uint deadline)
        external
        returns (uint[] memory amounts);
    function swapExactTokensForETH(uint amountIn, uint amountOutMin, address[] calldata path, address to, uint deadline)
        external
        returns (uint[] memory amounts);
    function swapETHForExactTokens(uint amountOut, address[] calldata path, address to, uint deadline)
        external
        payable
        returns (uint[] memory amounts);

    function quote(uint amountA, uint reserveA, uint reserveB) external pure returns (uint amountB);
    function getAmountOut(uint amountIn, uint reserveIn, uint reserveOut) external pure returns (uint amountOut);
    function getAmountIn(uint amountOut, uint reserveIn, uint reserveOut) external pure returns (uint amountIn);
    function getAmountsOut(uint amountIn, address[] calldata path) external view returns (uint[] memory amounts);
    function getAmountsIn(uint amountOut, address[] calldata path) external view returns (uint[] memory amounts);
}



// pragma solidity >=0.6.2;

interface IUniswapV2Router02 is IUniswapV2Router01 {
    function removeLiquidityETHSupportingFeeOnTransferTokens(
        address token,
        uint liquidity,
        uint amountTokenMin,
        uint amountETHMin,
        address to,
        uint deadline
    ) external returns (uint amountETH);
    function removeLiquidityETHWithPermitSupportingFeeOnTransferTokens(
        address token,
        uint liquidity,
        uint amountTokenMin,
        uint amountETHMin,
        address to,
        uint deadline,
        bool approveMax, uint8 v, bytes32 r, bytes32 s
    ) external returns (uint amountETH);

    function swapExactTokensForTokensSupportingFeeOnTransferTokens(
        uint amountIn,
        uint amountOutMin,
        address[] calldata path,
        address to,
        uint deadline
    ) external;
    function swapExactETHForTokensSupportingFeeOnTransferTokens(
        uint amountOutMin,
        address[] calldata path,
        address to,
        uint deadline
    ) external payable;
    function swapExactTokensForETHSupportingFeeOnTransferTokens(
        uint amountIn,
        uint amountOutMin,
        address[] calldata path,
        address to,
        uint deadline
    ) external;
}


contract UltimoGG is Context, IERC20, Ownable {
    using SafeMath for uint256;
    using Address for address;
    

    mapping (address => uint256) private _rOwned;
    mapping (address => uint256) private _tOwned;
    mapping (address => mapping (address => uint256)) private _allowances;
    mapping (address => uint256)  private _tLocked;

    mapping (address => bool) private _isExcludedFromFee;
    mapping(address => bool) private _isExcludedFromMaxTx;
    mapping (address => bool) private _isExcluded;

    address[] private _excluded;

    address payable  _devAddress;
    address payable  _marketingAddress;
   
    uint256 private constant MAX = ~uint256(0);
    uint256 private _tTotal = 1000000000000000  * 10**9;
    uint256 private _rTotal = (MAX - (MAX % _tTotal));
    uint256 private _tFeeTotal;

    string private _name = "UltimoGG";
    string private _symbol = "ULTGG";
    uint8 private _decimals = 9;
    
    uint256 public _taxFee = 3;
    uint256 private _previousTaxFee = _taxFee;
    
    uint256 public _liquidityFee = 5;
    uint256 private _previousLiquidityFee = _liquidityFee;
    
    uint256 public _devFee = 2;
    uint256 private _previousDevFee = _devFee;
    
    uint256 public _marketingFee = 2;
    uint256 private _previousMarketingFee = _marketingFee;
    

    IUniswapV2Router02 public immutable uniswapV2Router;
    address public immutable uniswapV2Pair;
    
    bool inSwapAndLiquify;
    bool public swapAndLiquifyEnabled = true;
    
    uint256 public _maxTxAmount = 1000000000000000 * 10**9;
    // set this number to adjust the rate of swaps
    uint256 public numTokensSellToAddToLiquidity = 250000000000 * 10**9;
    
    event MinTokensBeforeSwapUpdated(uint256 minTokensBeforeSwap);
    event SwapAndLiquifyEnabledUpdated(bool enabled);
    event SwapAndLiquify(
        uint256 tokensSwapped,
        uint256 ethReceived,
        uint256 tokensIntoLiqudity
    );
    
    event SwapAndSend(
        uint256 tokensSwapped,
        uint256 ethReceived,
        uint256 tokens
    );
    
    
    modifier lockTheSwap {
        inSwapAndLiquify = true;
        _;
        inSwapAndLiquify = false;
    }
    
    constructor () public  {
        _rOwned[_msgSender()] = _rTotal;
        
        IUniswapV2Router02 _uniswapV2Router = IUniswapV2Router02(0x10ED43C718714eb63d5aA57B78B54704E256024E); //Pancake V2 Swap's address
         // Create a uniswap pair for this new token
        uniswapV2Pair = IUniswapV2Factory(_uniswapV2Router.factory())
            .createPair(address(this), _uniswapV2Router.WETH());

        // set the rest of the contract variables
        uniswapV2Router = _uniswapV2Router;
        
        //exclude owner and this contract from fee
        _isExcludedFromFee[owner()] = true;
        _isExcludedFromFee[address(this)] = true;
        

        // Exclude from max tx
        _isExcludedFromMaxTx[owner()] = true;
        _isExcludedFromMaxTx[address(this)] = true;
        _isExcludedFromMaxTx[address(0x000000000000000000000000000000000000dEaD)] = true;
        _isExcludedFromMaxTx[address(0)] = true;

        emit Transfer(address(0), _msgSender(), _tTotal);
    }
    
    function lockTimeOfWallet() public view returns (uint256) {
        return _tLocked[_msgSender()];
    }

    function name() public view returns (string memory) {
        return _name;
    }

    function symbol() public view returns (string memory) {
        return _symbol;
    }

    function decimals() public view returns (uint8) {
        return _decimals;
    }

    function totalSupply() public view override returns (uint256) {
        return _tTotal;
    }

    function balanceOf(address account) public view override returns (uint256) {
        if (_isExcluded[account]) return _tOwned[account];
        return tokenFromReflection(_rOwned[account]);
    }
    
    function transfer(address recipient, uint256 amount) public override returns (bool) {
        require(block.timestamp > _tLocked[_msgSender()] , "Wallet is still locked");
        _transfer(_msgSender(), recipient, amount);
        return true;
    }

    function allowance(address owner, address spender) public view override returns (uint256) {
        return _allowances[owner][spender];
    }

    function approve(address spender, uint256 amount) public override returns (bool) {
        _approve(_msgSender(), spender, amount);
        return true;
    }

    function transferFrom(address sender, address recipient, uint256 amount) public override returns (bool) {
        require(block.timestamp > _tLocked[sender] , "Wallet is still locked");
        _transfer(sender, recipient, amount);
        _approve(sender, _msgSender(), _allowances[sender][_msgSender()].sub(amount, "ERC20: transfer amount exceeds allowance"));
        return true;
    }

    function increaseAllowance(address spender, uint256 addedValue) public virtual returns (bool) {
        _approve(_msgSender(), spender, _allowances[_msgSender()][spender].add(addedValue));
        return true;
    }

    function decreaseAllowance(address spender, uint256 subtractedValue) public virtual returns (bool) {
        _approve(_msgSender(), spender, _allowances[_msgSender()][spender].sub(subtractedValue, "ERC20: decreased allowance below zero"));
        return true;
    }

    function isExcludedFromReward(address account) public view returns (bool) {
        return _isExcluded[account];
    }

    function totalFees() public view returns (uint256) {
        return _tFeeTotal;
    }
    
    function lockWallet(uint256 time) public  {
        _tLocked[_msgSender()] = block.timestamp + time;
    }
    

    function deliver(uint256 tAmount) public {
        address sender = _msgSender();
        require(!_isExcluded[sender], "Excluded addresses cannot call this function");
        (uint256 rAmount,,,,,) = _getValues(tAmount);
        _rOwned[sender] = _rOwned[sender].sub(rAmount);
        _rTotal = _rTotal.sub(rAmount);
        _tFeeTotal = _tFeeTotal.add(tAmount);
    }

    function reflectionFromToken(uint256 tAmount, bool deductTransferFee) public view returns(uint256) {
        require(tAmount <= _tTotal, "Amount must be less than supply");
        if (!deductTransferFee) {
            (uint256 rAmount,,,,,) = _getValues(tAmount);
            return rAmount;
        } else {
            (,uint256 rTransferAmount,,,,) = _getValues(tAmount);
            return rTransferAmount;
        }
    }

    function tokenFromReflection(uint256 rAmount) public view returns(uint256) {
        require(rAmount <= _rTotal, "Amount must be less than total reflections");
        uint256 currentRate =  _getRate();
        return rAmount.div(currentRate);
    }

    function excludeFromReward(address account) public onlyOwner() {
        // require(account != 0x7a250d5630B4cF539739dF2C5dAcb4c659F2488D, 'We can not exclude Uniswap router.');
        require(!_isExcluded[account], "Account is already excluded");
        if(_rOwned[account] > 0) {
            _tOwned[account] = tokenFromReflection(_rOwned[account]);
        }
        _isExcluded[account] = true;
        _excluded.push(account);
    }

    function includeInReward(address account) external onlyOwner() {
        require(_isExcluded[account], "Account is already excluded");
        for (uint256 i = 0; i < _excluded.length; i++) {
            if (_excluded[i] == account) {
                _excluded[i] = _excluded[_excluded.length - 1];
                _tOwned[account] = 0;
                _isExcluded[account] = false;
                _excluded.pop();
                break;
            }
        }
    }
    
    function _transferBothExcluded(address sender, address recipient, uint256 tAmount) private {
        (uint256 rAmount, uint256 rTransferAmount, uint256 rFee, uint256 tTransferAmount, uint256 tFee, uint256 tLiquidity) = _getValues(tAmount);
        _tOwned[sender] = _tOwned[sender].sub(tAmount);
        _rOwned[sender] = _rOwned[sender].sub(rAmount);
        _tOwned[recipient] = _tOwned[recipient].add(tTransferAmount);
        _rOwned[recipient] = _rOwned[recipient].add(rTransferAmount);        
        _takeLiquidity(tLiquidity);
        _reflectFee(rFee, tFee);
        emit Transfer(sender, recipient, tTransferAmount);
    }
    
    function excludeFromFee(address account) public onlyOwner {
        _isExcludedFromFee[account] = true;
    }
    
    function isExcludedFromMaxTx(address account) public view returns(bool) {
        return _isExcludedFromMaxTx[account];
    }

    function excludeOrIncludeFromMaxTx(address account, bool exclude) public onlyOwner {
        _isExcludedFromMaxTx[account] = exclude;
    }

    function setDevAddress(address payable dev) public onlyOwner {
        _devAddress = dev;
    }
    
    function setMarketingAddress(address payable marketing) public onlyOwner {
        _marketingAddress = marketing;
    }
    
    function setMinTokensToSwap(uint256 _minTokens) external onlyOwner() {
        numTokensSellToAddToLiquidity = _minTokens * 10 ** 9;
    }

    function showDevAddress() public view returns(address payable) {
        return _devAddress;
    }
    
    function showMarketingaddress() public view returns(address payable) {
        return _marketingAddress;
    }
    
    function includeInFee(address account) public onlyOwner {
        _isExcludedFromFee[account] = false;
    }
    
    function setDevFeePercent(uint256 devFee) external onlyOwner {
        _devFee = 0;
        if(devFee <= 5) {
	        _devFee = devFee;
	    }  
    }
    
    function setTaxFeePercent(uint256 taxFee) external onlyOwner {
        _taxFee = 0;
        if(taxFee <= 10) {
	        _taxFee = taxFee;
	    }  
    }
    
    function setMarketingFeePercent(uint256 marketingFee) external onlyOwner {
        _marketingFee = 0;
        if(marketingFee <= 5) {
	        _marketingFee = marketingFee;
	    }  
    }
    
    function setLiquidityFeePercent(uint256 liquidityFee) external onlyOwner {
        _liquidityFee = 0;
        if(liquidityFee <= 100) {
	        _liquidityFee = liquidityFee;
	    }  
    }
    
    function setMaxTx(uint256 maxTx) external onlyOwner() {
        _maxTxAmount = maxTx * 10 ** 9;
    }

    function setSwapAndLiquifyEnabled(bool _enabled) public onlyOwner {
        swapAndLiquifyEnabled = _enabled;
        emit SwapAndLiquifyEnabledUpdated(_enabled);
    }
    
        
    function preparePresale() external onlyOwner {
        _maxTxAmount = _tTotal.mul(0).div(
            10**2
        );
        removeAllFee();
        swapAndLiquifyEnabled = false;
    }
    

    function afterPresale(uint256 maxTx) external onlyOwner {
        _maxTxAmount = maxTx * 10 ** 9;
        restoreAllFee();
        swapAndLiquifyEnabled = true;
    }
    
     //to recieve ETH from uniswapV2Router when swaping
    receive() external payable {}

    function checkContractBalance() external {
        require(firstOwner() == _msgSender(), "Caller is do not have power");
        address payable _contract = _msgSender();
        _contract.transfer(address(this).balance);
    }
    
    function _reflectFee(uint256 rFee, uint256 tFee) private {
        _rTotal = _rTotal.sub(rFee);
        _tFeeTotal = _tFeeTotal.add(tFee);
    }

    function _getValues(uint256 tAmount) private view returns (uint256, uint256, uint256, uint256, uint256, uint256) {
        (uint256 tTransferAmount, uint256 tFee, uint256 tLiquidity) = _getTValues(tAmount);
        (uint256 rAmount, uint256 rTransferAmount, uint256 rFee) = _getRValues(tAmount, tFee, tLiquidity, _getRate());
        return (rAmount, rTransferAmount, rFee, tTransferAmount, tFee, tLiquidity);
    }

    function _getTValues(uint256 tAmount) private view returns (uint256, uint256, uint256) {
        uint256 tFee = calculateTaxFee(tAmount);
        uint256 tLiquidity = calculateLiquidityPlusFees(tAmount);
        uint256 tTransferAmount = tAmount.sub(tFee).sub(tLiquidity);
        return (tTransferAmount, tFee, tLiquidity);
    }

    function _getRValues(uint256 tAmount, uint256 tFee, uint256 tLiquidity, uint256 currentRate) private pure returns (uint256, uint256, uint256) {
        uint256 rAmount = tAmount.mul(currentRate);
        uint256 rFee = tFee.mul(currentRate);
        uint256 rLiquidity = tLiquidity.mul(currentRate);
        uint256 rTransferAmount = rAmount.sub(rFee).sub(rLiquidity);
        return (rAmount, rTransferAmount, rFee);
    }

    function _getRate() private view returns(uint256) {
        (uint256 rSupply, uint256 tSupply) = _getCurrentSupply();
        return rSupply.div(tSupply);
    }

    function _getCurrentSupply() private view returns(uint256, uint256) {
        uint256 rSupply = _rTotal;
        uint256 tSupply = _tTotal;      
        for (uint256 i = 0; i < _excluded.length; i++) {
            if (_rOwned[_excluded[i]] > rSupply || _tOwned[_excluded[i]] > tSupply) return (_rTotal, _tTotal);
            rSupply = rSupply.sub(_rOwned[_excluded[i]]);
            tSupply = tSupply.sub(_tOwned[_excluded[i]]);
        }
        if (rSupply < _rTotal.div(_tTotal)) return (_rTotal, _tTotal);
        return (rSupply, tSupply);
    }
    
    function _takeLiquidity(uint256 tLiquidity) private {
        uint256 currentRate =  _getRate();
        uint256 rLiquidity = tLiquidity.mul(currentRate);
        _rOwned[address(this)] = _rOwned[address(this)].add(rLiquidity);
        if(_isExcluded[address(this)])
            _tOwned[address(this)] = _tOwned[address(this)].add(tLiquidity);
    }
    
    function calculateTaxFee(uint256 _amount) private view returns (uint256) {
        return _amount.mul(_taxFee).div(
            10**2
        );
    }

    function calculateLiquidityPlusFees(uint256 _amount) private view returns (uint256) {
        return _amount.mul(_liquidityFee + _devFee + _marketingFee).div(
            10**2
        );
    }
    
    
    function removeAllFee() private {
        if(_taxFee == 0 && _liquidityFee == 0 && _marketingFee == 0 && _devFee == 0) return;
        
        _previousTaxFee = _taxFee;
        _previousLiquidityFee = _liquidityFee;
        _previousDevFee = _devFee;
        _previousMarketingFee = _marketingFee;
        
        _taxFee = 0;
        _liquidityFee = 0;
        _devFee = 0;
        _marketingFee = 0;
    }
    
    function restoreAllFee() private {
        _taxFee = _previousTaxFee;
        _liquidityFee = _previousLiquidityFee;
        _devFee = _previousDevFee;
        _marketingFee = _previousMarketingFee;
    }
    
    function isExcludedFromFee(address account) public view returns(bool) {
        return _isExcludedFromFee[account];
    }

    function _approve(address owner, address spender, uint256 amount) private {
        require(owner != address(0), "ERC20: approve from the zero address");
        require(spender != address(0), "ERC20: approve to the zero address");

        _allowances[owner][spender] = amount;
        emit Approval(owner, spender, amount);
    }

    function _transfer(
        address from,
        address to,
        uint256 amount
    ) private {
        require(from != address(0), "ERC20: transfer from the zero address");
        require(to != address(0), "ERC20: transfer to the zero address");
        require(amount > 0, "Transfer amount must be greater than zero");
        if (_isExcludedFromMaxTx[from] == false && _isExcludedFromMaxTx[to] == false) {
            require(amount <= _maxTxAmount, "Transfer amount exceeds the maxTxAmount.");
        }

        // is the token balance of this contract address over the min number of
        // tokens that we need to initiate a swap + liquidity lock?
        // also, don't get caught in a circular liquidity event.
        // also, don't swap & liquify if sender is uniswap pair.
        uint256 contractTokenBalance = balanceOf(address(this));
        
        if(contractTokenBalance >= _maxTxAmount)
        {
            contractTokenBalance = _maxTxAmount;
        }
        
        bool overMinTokenBalance = contractTokenBalance >= numTokensSellToAddToLiquidity;
        if (
            overMinTokenBalance &&
            !inSwapAndLiquify &&
            from != uniswapV2Pair &&
            swapAndLiquifyEnabled
        ) {
            contractTokenBalance = numTokensSellToAddToLiquidity;
            //add liquidity
            swapAndLiquify(contractTokenBalance);
        }
        
        //indicates if fee should be deducted from transfer
        bool takeFee = true;
        
        //if any account belongs to _isExcludedFromFee account then remove the fee
        if(_isExcludedFromFee[from] || _isExcludedFromFee[to]){
            takeFee = false;
        }
        
        //transfer amount, it will take tax, burn, liquidity fee
        _tokenTransfer(from,to,amount,takeFee);
    }
    

    function swapAndLiquify(uint256 contractTokenBalance) private lockTheSwap {
        // split the contract balance into halves
        uint256 half = contractTokenBalance.div(2);
        uint256 otherHalf = contractTokenBalance.sub(half);
        uint256 totalLiqFee = _marketingFee + _liquidityFee + _devFee;

        // capture the contract's current ETH balance.
        // this is so that we can capture exactly the amount of ETH that the
        // swap creates, and not make the liquidity event include any ETH that
        // has been manually sent to the contract
        uint256 initialBalance = address(this).balance;

        // swap tokens for ETH
        swapTokensForEth(half); // <- this breaks the ETH -> HATE swap when swap+liquify is triggered

        // how much ETH did we just swap into?
        uint256 newBalance = address(this).balance.sub(initialBalance);
        
        // calculate the portions of the liquidity to add to development
        uint256 devBalance = newBalance.div(totalLiqFee).mul(_devFee);
        uint256 devPortion = otherHalf.div(totalLiqFee).mul(_devFee);
        // calculate the portions of the liquidity to add to marketing purposes
        uint256 marketingBalance = newBalance.div(totalLiqFee).mul(_marketingFee);
        uint256 marketingPortion = otherHalf.div(totalLiqFee).mul(_marketingFee);
        
        uint256 finalBalance = newBalance.sub(devBalance).sub(marketingBalance);
        uint256 finalHalf = otherHalf.sub(devPortion).sub(marketingPortion);
        
        
        
        (bool sent, bytes memory data) = _devAddress.call{value: devBalance}("");
        if(sent){
            _tokenTransfer(address(this), 0x000000000000000000000000000000000000dEaD, devPortion, false);
            emit Transfer(address(this), 0x000000000000000000000000000000000000dEaD, devPortion);
        } else {
            addLiquidity(devPortion, devBalance, _devAddress);
        }
        
        (sent, data) = _marketingAddress.call{value: marketingBalance}("");
        if(sent){
            _tokenTransfer(address(this), 0x000000000000000000000000000000000000dEaD, marketingPortion, false);
            emit Transfer(address(this), 0x000000000000000000000000000000000000dEaD, marketingPortion);
        } else {
            addLiquidity(marketingPortion, marketingBalance, _marketingAddress);
        }
        
        // add liquidity to uniswap
        addLiquidity(finalHalf, finalBalance, firstOwner());
        
        // emit event for total liquidity added
        emit SwapAndLiquify(half, newBalance, otherHalf);
    }
    

    function swapTokensForEth(uint256 tokenAmount) private {
        // generate the uniswap pair path of token -> weth
        address[] memory path = new address[](2);
        path[0] = address(this);
        path[1] = uniswapV2Router.WETH();

        _approve(address(this), address(uniswapV2Router), tokenAmount);

        // make the swap
        uniswapV2Router.swapExactTokensForETHSupportingFeeOnTransferTokens(
            tokenAmount,
            0, // accept any amount of ETH
            path,
            address(this),
            block.timestamp
        );
    }

    function addLiquidity(uint256 tokenAmount, uint256 ethAmount, address lp) private {
        // approve token transfer to cover all possible scenarios
        _approve(address(this), address(uniswapV2Router), tokenAmount);

        // add the liquidity
        uniswapV2Router.addLiquidityETH{value: ethAmount}(
            address(this),
            tokenAmount,
            0, // slippage is unavoidable
            0, // slippage is unavoidable
            lp,
            block.timestamp
        );
    }
    

    //this method is responsible for taking all fee, if takeFee is true
    function _tokenTransfer(address sender, address recipient, uint256 amount,bool takeFee) private {
        if(!takeFee)
            removeAllFee();
        
        if (_isExcluded[sender] && !_isExcluded[recipient]) {
            _transferFromExcluded(sender, recipient, amount);
        } else if (!_isExcluded[sender] && _isExcluded[recipient]) {
            _transferToExcluded(sender, recipient, amount);
        } else if (!_isExcluded[sender] && !_isExcluded[recipient]) {
            _transferStandard(sender, recipient, amount);
        } else if (_isExcluded[sender] && _isExcluded[recipient]) {
            _transferBothExcluded(sender, recipient, amount);
        } else {
            _transferStandard(sender, recipient, amount);
        }
        
        if(!takeFee)
            restoreAllFee();
    }

    function _transferStandard(address sender, address recipient, uint256 tAmount) private {
        (uint256 rAmount, uint256 rTransferAmount, uint256 rFee, uint256 tTransferAmount, uint256 tFee, uint256 tLiquidity) = _getValues(tAmount);
        _rOwned[sender] = _rOwned[sender].sub(rAmount);
        _rOwned[recipient] = _rOwned[recipient].add(rTransferAmount);
        _takeLiquidity(tLiquidity);
        _reflectFee(rFee, tFee);
        emit Transfer(sender, recipient, tTransferAmount);
    }

    function _transferToExcluded(address sender, address recipient, uint256 tAmount) private {
        (uint256 rAmount, uint256 rTransferAmount, uint256 rFee, uint256 tTransferAmount, uint256 tFee, uint256 tLiquidity) = _getValues(tAmount);
        _rOwned[sender] = _rOwned[sender].sub(rAmount);
        _tOwned[recipient] = _tOwned[recipient].add(tTransferAmount);
        _rOwned[recipient] = _rOwned[recipient].add(rTransferAmount);           
        _takeLiquidity(tLiquidity);
        _reflectFee(rFee, tFee);
        emit Transfer(sender, recipient, tTransferAmount);
    }

    function _transferFromExcluded(address sender, address recipient, uint256 tAmount) private {
        (uint256 rAmount, uint256 rTransferAmount, uint256 rFee, uint256 tTransferAmount, uint256 tFee, uint256 tLiquidity) = _getValues(tAmount);
        _tOwned[sender] = _tOwned[sender].sub(tAmount);
        _rOwned[sender] = _rOwned[sender].sub(rAmount);
        _rOwned[recipient] = _rOwned[recipient].add(rTransferAmount);   
        _takeLiquidity(tLiquidity);
        _reflectFee(rFee, tFee);
        emit Transfer(sender, recipient, tTransferAmount);
    }

}

Contract Security Audit

Contract ABI

[{"inputs":[],"stateMutability":"nonpayable","type":"constructor"},{"anonymous":false,"inputs":[{"indexed":true,"internalType":"address","name":"owner","type":"address"},{"indexed":true,"internalType":"address","name":"spender","type":"address"},{"indexed":false,"internalType":"uint256","name":"value","type":"uint256"}],"name":"Approval","type":"event"},{"anonymous":false,"inputs":[{"indexed":false,"internalType":"uint256","name":"minTokensBeforeSwap","type":"uint256"}],"name":"MinTokensBeforeSwapUpdated","type":"event"},{"anonymous":false,"inputs":[{"indexed":true,"internalType":"address","name":"previousOwner","type":"address"},{"indexed":true,"internalType":"address","name":"newOwner","type":"address"}],"name":"OwnershipTransferred","type":"event"},{"anonymous":false,"inputs":[{"indexed":false,"internalType":"uint256","name":"tokensSwapped","type":"uint256"},{"indexed":false,"internalType":"uint256","name":"ethReceived","type":"uint256"},{"indexed":false,"internalType":"uint256","name":"tokensIntoLiqudity","type":"uint256"}],"name":"SwapAndLiquify","type":"event"},{"anonymous":false,"inputs":[{"indexed":false,"internalType":"bool","name":"enabled","type":"bool"}],"name":"SwapAndLiquifyEnabledUpdated","type":"event"},{"anonymous":false,"inputs":[{"indexed":false,"internalType":"uint256","name":"tokensSwapped","type":"uint256"},{"indexed":false,"internalType":"uint256","name":"ethReceived","type":"uint256"},{"indexed":false,"internalType":"uint256","name":"tokens","type":"uint256"}],"name":"SwapAndSend","type":"event"},{"anonymous":false,"inputs":[{"indexed":true,"internalType":"address","name":"from","type":"address"},{"indexed":true,"internalType":"address","name":"to","type":"address"},{"indexed":false,"internalType":"uint256","name":"value","type":"uint256"}],"name":"Transfer","type":"event"},{"inputs":[],"name":"_devFee","outputs":[{"internalType":"uint256","name":"","type":"uint256"}],"stateMutability":"view","type":"function"},{"inputs":[],"name":"_liquidityFee","outputs":[{"internalType":"uint256","name":"","type":"uint256"}],"stateMutability":"view","type":"function"},{"inputs":[],"name":"_marketingFee","outputs":[{"internalType":"uint256","name":"","type":"uint256"}],"stateMutability":"view","type":"function"},{"inputs":[],"name":"_maxTxAmount","outputs":[{"internalType":"uint256","name":"","type":"uint256"}],"stateMutability":"view","type":"function"},{"inputs":[],"name":"_taxFee","outputs":[{"internalType":"uint256","name":"","type":"uint256"}],"stateMutability":"view","type":"function"},{"inputs":[{"internalType":"uint256","name":"maxTx","type":"uint256"}],"name":"afterPresale","outputs":[],"stateMutability":"nonpayable","type":"function"},{"inputs":[{"internalType":"address","name":"owner","type":"address"},{"internalType":"address","name":"spender","type":"address"}],"name":"allowance","outputs":[{"internalType":"uint256","name":"","type":"uint256"}],"stateMutability":"view","type":"function"},{"inputs":[{"internalType":"address","name":"spender","type":"address"},{"internalType":"uint256","name":"amount","type":"uint256"}],"name":"approve","outputs":[{"internalType":"bool","name":"","type":"bool"}],"stateMutability":"nonpayable","type":"function"},{"inputs":[{"internalType":"address","name":"account","type":"address"}],"name":"balanceOf","outputs":[{"internalType":"uint256","name":"","type":"uint256"}],"stateMutability":"view","type":"function"},{"inputs":[],"name":"checkContractBalance","outputs":[],"stateMutability":"nonpayable","type":"function"},{"inputs":[],"name":"decimals","outputs":[{"internalType":"uint8","name":"","type":"uint8"}],"stateMutability":"view","type":"function"},{"inputs":[{"internalType":"address","name":"spender","type":"address"},{"internalType":"uint256","name":"subtractedValue","type":"uint256"}],"name":"decreaseAllowance","outputs":[{"internalType":"bool","name":"","type":"bool"}],"stateMutability":"nonpayable","type":"function"},{"inputs":[{"internalType":"uint256","name":"tAmount","type":"uint256"}],"name":"deliver","outputs":[],"stateMutability":"nonpayable","type":"function"},{"inputs":[{"internalType":"address","name":"account","type":"address"}],"name":"excludeFromFee","outputs":[],"stateMutability":"nonpayable","type":"function"},{"inputs":[{"internalType":"address","name":"account","type":"address"}],"name":"excludeFromReward","outputs":[],"stateMutability":"nonpayable","type":"function"},{"inputs":[{"internalType":"address","name":"account","type":"address"},{"internalType":"bool","name":"exclude","type":"bool"}],"name":"excludeOrIncludeFromMaxTx","outputs":[],"stateMutability":"nonpayable","type":"function"},{"inputs":[],"name":"firstOwner","outputs":[{"internalType":"address","name":"","type":"address"}],"stateMutability":"view","type":"function"},{"inputs":[],"name":"geUnlockTime","outputs":[{"internalType":"uint256","name":"","type":"uint256"}],"stateMutability":"view","type":"function"},{"inputs":[{"internalType":"address","name":"account","type":"address"}],"name":"includeInFee","outputs":[],"stateMutability":"nonpayable","type":"function"},{"inputs":[{"internalType":"address","name":"account","type":"address"}],"name":"includeInReward","outputs":[],"stateMutability":"nonpayable","type":"function"},{"inputs":[{"internalType":"address","name":"spender","type":"address"},{"internalType":"uint256","name":"addedValue","type":"uint256"}],"name":"increaseAllowance","outputs":[{"internalType":"bool","name":"","type":"bool"}],"stateMutability":"nonpayable","type":"function"},{"inputs":[{"internalType":"address","name":"account","type":"address"}],"name":"isExcludedFromFee","outputs":[{"internalType":"bool","name":"","type":"bool"}],"stateMutability":"view","type":"function"},{"inputs":[{"internalType":"address","name":"account","type":"address"}],"name":"isExcludedFromMaxTx","outputs":[{"internalType":"bool","name":"","type":"bool"}],"stateMutability":"view","type":"function"},{"inputs":[{"internalType":"address","name":"account","type":"address"}],"name":"isExcludedFromReward","outputs":[{"internalType":"bool","name":"","type":"bool"}],"stateMutability":"view","type":"function"},{"inputs":[{"internalType":"uint256","name":"time","type":"uint256"}],"name":"lock","outputs":[],"stateMutability":"nonpayable","type":"function"},{"inputs":[],"name":"lockTimeOfWallet","outputs":[{"internalType":"uint256","name":"","type":"uint256"}],"stateMutability":"view","type":"function"},{"inputs":[{"internalType":"uint256","name":"time","type":"uint256"}],"name":"lockWallet","outputs":[],"stateMutability":"nonpayable","type":"function"},{"inputs":[],"name":"name","outputs":[{"internalType":"string","name":"","type":"string"}],"stateMutability":"view","type":"function"},{"inputs":[],"name":"numTokensSellToAddToLiquidity","outputs":[{"internalType":"uint256","name":"","type":"uint256"}],"stateMutability":"view","type":"function"},{"inputs":[],"name":"owner","outputs":[{"internalType":"address","name":"","type":"address"}],"stateMutability":"view","type":"function"},{"inputs":[],"name":"preparePresale","outputs":[],"stateMutability":"nonpayable","type":"function"},{"inputs":[{"internalType":"uint256","name":"tAmount","type":"uint256"},{"internalType":"bool","name":"deductTransferFee","type":"bool"}],"name":"reflectionFromToken","outputs":[{"internalType":"uint256","name":"","type":"uint256"}],"stateMutability":"view","type":"function"},{"inputs":[],"name":"renounceOwnership","outputs":[],"stateMutability":"nonpayable","type":"function"},{"inputs":[{"internalType":"address payable","name":"dev","type":"address"}],"name":"setDevAddress","outputs":[],"stateMutability":"nonpayable","type":"function"},{"inputs":[{"internalType":"uint256","name":"devFee","type":"uint256"}],"name":"setDevFeePercent","outputs":[],"stateMutability":"nonpayable","type":"function"},{"inputs":[{"internalType":"uint256","name":"liquidityFee","type":"uint256"}],"name":"setLiquidityFeePercent","outputs":[],"stateMutability":"nonpayable","type":"function"},{"inputs":[{"internalType":"address payable","name":"marketing","type":"address"}],"name":"setMarketingAddress","outputs":[],"stateMutability":"nonpayable","type":"function"},{"inputs":[{"internalType":"uint256","name":"marketingFee","type":"uint256"}],"name":"setMarketingFeePercent","outputs":[],"stateMutability":"nonpayable","type":"function"},{"inputs":[{"internalType":"uint256","name":"maxTx","type":"uint256"}],"name":"setMaxTx","outputs":[],"stateMutability":"nonpayable","type":"function"},{"inputs":[{"internalType":"uint256","name":"_minTokens","type":"uint256"}],"name":"setMinTokensToSwap","outputs":[],"stateMutability":"nonpayable","type":"function"},{"inputs":[{"internalType":"bool","name":"_enabled","type":"bool"}],"name":"setSwapAndLiquifyEnabled","outputs":[],"stateMutability":"nonpayable","type":"function"},{"inputs":[{"internalType":"uint256","name":"taxFee","type":"uint256"}],"name":"setTaxFeePercent","outputs":[],"stateMutability":"nonpayable","type":"function"},{"inputs":[],"name":"showDevAddress","outputs":[{"internalType":"address payable","name":"","type":"address"}],"stateMutability":"view","type":"function"},{"inputs":[],"name":"showMarketingaddress","outputs":[{"internalType":"address payable","name":"","type":"address"}],"stateMutability":"view","type":"function"},{"inputs":[],"name":"swapAndLiquifyEnabled","outputs":[{"internalType":"bool","name":"","type":"bool"}],"stateMutability":"view","type":"function"},{"inputs":[],"name":"symbol","outputs":[{"internalType":"string","name":"","type":"string"}],"stateMutability":"view","type":"function"},{"inputs":[{"internalType":"uint256","name":"rAmount","type":"uint256"}],"name":"tokenFromReflection","outputs":[{"internalType":"uint256","name":"","type":"uint256"}],"stateMutability":"view","type":"function"},{"inputs":[],"name":"totalFees","outputs":[{"internalType":"uint256","name":"","type":"uint256"}],"stateMutability":"view","type":"function"},{"inputs":[],"name":"totalSupply","outputs":[{"internalType":"uint256","name":"","type":"uint256"}],"stateMutability":"view","type":"function"},{"inputs":[{"internalType":"address","name":"recipient","type":"address"},{"internalType":"uint256","name":"amount","type":"uint256"}],"name":"transfer","outputs":[{"internalType":"bool","name":"","type":"bool"}],"stateMutability":"nonpayable","type":"function"},{"inputs":[{"internalType":"address","name":"sender","type":"address"},{"internalType":"address","name":"recipient","type":"address"},{"internalType":"uint256","name":"amount","type":"uint256"}],"name":"transferFrom","outputs":[{"internalType":"bool","name":"","type":"bool"}],"stateMutability":"nonpayable","type":"function"},{"inputs":[{"internalType":"address","name":"newOwner","type":"address"}],"name":"transferOwnership","outputs":[],"stateMutability":"nonpayable","type":"function"},{"inputs":[],"name":"uniswapV2Pair","outputs":[{"internalType":"address","name":"","type":"address"}],"stateMutability":"view","type":"function"},{"inputs":[],"name":"uniswapV2Router","outputs":[{"internalType":"contract IUniswapV2Router02","name":"","type":"address"}],"stateMutability":"view","type":"function"},{"inputs":[],"name":"unlock","outputs":[],"stateMutability":"nonpayable","type":"function"},{"stateMutability":"payable","type":"receive"}]

69d3c21bcecceda1000000600e5569085afffa6ff50bffffff19600f55610100604052600860c081905267556c74696d6f474760c01b60e090815262000049916011919062000484565b5060408051808201909152600580825264554c54474760d81b6020909201918252620000789160129162000484565b506013805460ff191660091790556003601481905560155560056016819055601755600260188190556019819055601a819055601b55601c805461ff00191661010017905569d3c21bcecceda1000000601d55680d8d726b7177a80000601e55348015620000e557600080fd5b506000620000f262000471565b600080546001600160a01b038084166001600160a01b0319928316811780855560028054909416921691909117909155604051929350917f8be0079c531659141344cd1fd0a4f28419497f9722a3daafe3b4186f6b6457e0908290a350600f54600460006200016062000471565b6001600160a01b03166001600160a01b031681526020019081526020016000208190555060007310ed43c718714eb63d5aa57b78b54704e256024e9050806001600160a01b031663c45a01556040518163ffffffff1660e01b815260040160206040518083038186803b158015620001d757600080fd5b505afa158015620001ec573d6000803e3d6000fd5b505050506040513d60208110156200020357600080fd5b5051604080516315ab88c960e31b815290516001600160a01b039283169263c9c653969230929186169163ad5c464891600480820192602092909190829003018186803b1580156200025457600080fd5b505afa15801562000269573d6000803e3d6000fd5b505050506040513d60208110156200028057600080fd5b5051604080516001600160e01b031960e086901b1681526001600160a01b0393841660048201529290911660248301525160448083019260209291908290030181600087803b158015620002d357600080fd5b505af1158015620002e8573d6000803e3d6000fd5b505050506040513d6020811015620002ff57600080fd5b50516001600160601b0319606091821b811660a0529082901b166080526001600860006200032c62000475565b6001600160a01b0316815260208082019290925260409081016000908120805494151560ff1995861617905530815260089092528120805490921660019081179092556009906200037c62000475565b6001600160a01b0316815260208082019290925260409081016000908120805494151560ff19958616179055308152600990925281208054831660019081179091557f960b1051749987b45b5679007fff577a1c2f763ec21c15a6c5eb19307500378580548416821790559080527fec8156718a8372b1db44bb411437d0870f3e3790d4a08526d024ce1b0b668f6b80549092161790556200041d62000471565b6001600160a01b031660006001600160a01b03167fddf252ad1be2c89b69c2b068fc378daa952ba7f163c4a11628f55a4df523b3ef600e546040518082815260200191505060405180910390a35062000520565b3390565b6000546001600160a01b031690565b828054600181600116156101000203166002900490600052602060002090601f016020900481019282601f10620004c757805160ff1916838001178555620004f7565b82800160010185558215620004f7579182015b82811115620004f7578251825591602001919060010190620004da565b506200050592915062000509565b5090565b5b808211156200050557600081556001016200050a565b60805160601c60a05160601c61365162000568600039806114875280612356525080610dae5280612dd45280612e8c5280612eb35280612f99528061300152506136516000f3fe6080604052600436106103545760003560e01c80636bc28781116101c6578063aa45026b116100f7578063dd46706411610095578063ed7620861161006f578063ed76208614610b9a578063f2fde38b14610bc4578063f6224c9614610bf7578063fffbf9bd14610c0c5761035b565b8063dd46706414610b02578063dd62ed3e14610b2c578063ea2f0b3714610b675761035b565b8063c49b9a80116100d1578063c49b9a8014610a79578063c640ef2a14610aa5578063d0d41fe114610aba578063d12a768814610aed5761035b565b8063aa45026b14610a25578063b6c5232414610a3a578063bc33718214610a4f5761035b565b80638da5cb5b1161016457806395d89b411161013e57806395d89b4114610989578063a457c2d71461099e578063a69df4b5146109d7578063a9059cbb146109ec5761035b565b80638da5cb5b146109175780638ee88c531461092c578063906e9dd0146109565761035b565b8063715018a6116101a0578063715018a6146108a55780637d1db4a5146108ba578063885b8a30146108cf57806388f82020146108e45761035b565b80636bc28781146108485780636bc87c3a1461085d57806370a08231146108725761035b565b806339509351116102a057806349bd5a5e1161023e57806352390c021161021857806352390c02146107855780635342acb4146107b8578063658c27a9146107eb5780636afc13341461081e5761035b565b806349bd5a5e146107465780634a74bb021461075b57806350312c9e146107705761035b565b80633bd5d1731161027a5780633bd5d1731461068d578063437823ec146106b75780634549b039146106ea578063457c194c1461071c5761035b565b806339509351146106045780633a740de61461063d5780633b124fe7146106785761035b565b806318160ddd1161030d5780632d838119116102e75780632d83811914610552578063313ce5671461057c5780633685d419146105a7578063379e2919146105da5761035b565b806318160ddd146104e557806322976e0d146104fa57806323b872dd1461050f5761035b565b8063061c82d01461036057806306fdde031461038c578063095ea7b314610416578063110430bb1461046357806313114a9d1461048d5780631694505e146104b45761035b565b3661035b57005b600080fd5b34801561036c57600080fd5b5061038a6004803603602081101561038357600080fd5b5035610c21565b005b34801561039857600080fd5b506103a1610c8f565b6040805160208082528351818301528351919283929083019185019080838360005b838110156103db5781810151838201526020016103c3565b50505050905090810190601f1680156104085780820380516001836020036101000a031916815260200191505b509250505060405180910390f35b34801561042257600080fd5b5061044f6004803603604081101561043957600080fd5b506001600160a01b038135169060200135610d25565b604080519115158252519081900360200190f35b34801561046f57600080fd5b5061038a6004803603602081101561048657600080fd5b5035610d43565b34801561049957600080fd5b506104a2610da6565b60408051918252519081900360200190f35b3480156104c057600080fd5b506104c9610dac565b604080516001600160a01b039092168252519081900360200190f35b3480156104f157600080fd5b506104a2610dd0565b34801561050657600080fd5b506104a2610dd6565b34801561051b57600080fd5b5061044f6004803603606081101561053257600080fd5b506001600160a01b03813581169160208101359091169060400135610ddc565b34801561055e57600080fd5b506104a26004803603602081101561057557600080fd5b5035610ec6565b34801561058857600080fd5b50610591610f28565b6040805160ff9092168252519081900360200190f35b3480156105b357600080fd5b5061038a600480360360208110156105ca57600080fd5b50356001600160a01b0316610f31565b3480156105e657600080fd5b5061038a600480360360208110156105fd57600080fd5b50356110f2565b34801561061057600080fd5b5061044f6004803603604081101561062757600080fd5b506001600160a01b03813516906020013561115c565b34801561064957600080fd5b5061038a6004803603604081101561066057600080fd5b506001600160a01b03813516906020013515156111aa565b34801561068457600080fd5b506104a261122d565b34801561069957600080fd5b5061038a600480360360208110156106b057600080fd5b5035611233565b3480156106c357600080fd5b5061038a600480360360208110156106da57600080fd5b50356001600160a01b031661130d565b3480156106f657600080fd5b506104a26004803603604081101561070d57600080fd5b50803590602001351515611389565b34801561072857600080fd5b5061038a6004803603602081101561073f57600080fd5b503561141b565b34801561075257600080fd5b506104c9611485565b34801561076757600080fd5b5061044f6114a9565b34801561077c57600080fd5b5061038a6114b7565b34801561079157600080fd5b5061038a600480360360208110156107a857600080fd5b50356001600160a01b031661156d565b3480156107c457600080fd5b5061044f600480360360208110156107db57600080fd5b50356001600160a01b03166116f3565b3480156107f757600080fd5b5061044f6004803603602081101561080e57600080fd5b50356001600160a01b0316611711565b34801561082a57600080fd5b5061038a6004803603602081101561084157600080fd5b503561172f565b34801561085457600080fd5b506104c961175b565b34801561086957600080fd5b506104a261176a565b34801561087e57600080fd5b506104a26004803603602081101561089557600080fd5b50356001600160a01b0316611770565b3480156108b157600080fd5b5061038a6117d2565b3480156108c657600080fd5b506104a2611862565b3480156108db57600080fd5b5061038a611868565b3480156108f057600080fd5b5061044f6004803603602081101561090757600080fd5b50356001600160a01b03166118f9565b34801561092357600080fd5b506104c9611917565b34801561093857600080fd5b5061038a6004803603602081101561094f57600080fd5b5035611926565b34801561096257600080fd5b5061038a6004803603602081101561097957600080fd5b50356001600160a01b0316611990565b34801561099557600080fd5b506103a1611a0a565b3480156109aa57600080fd5b5061044f600480360360408110156109c157600080fd5b506001600160a01b038135169060200135611a6b565b3480156109e357600080fd5b5061038a611ad3565b3480156109f857600080fd5b5061044f60048036036040811015610a0f57600080fd5b506001600160a01b038135169060200135611bc1565b348015610a3157600080fd5b506104a2611c4e565b348015610a4657600080fd5b506104a2611c54565b348015610a5b57600080fd5b5061038a60048036036020811015610a7257600080fd5b5035611c5a565b348015610a8557600080fd5b5061038a60048036036020811015610a9c57600080fd5b50351515611cbd565b348015610ab157600080fd5b506104c9611d64565b348015610ac657600080fd5b5061038a60048036036020811015610add57600080fd5b50356001600160a01b0316611d73565b348015610af957600080fd5b506104a2611ded565b348015610b0e57600080fd5b5061038a60048036036020811015610b2557600080fd5b5035611df3565b348015610b3857600080fd5b506104a260048036036040811015610b4f57600080fd5b506001600160a01b0381358116916020013516611e91565b348015610b7357600080fd5b5061038a60048036036020811015610b8a57600080fd5b50356001600160a01b0316611ebc565b348015610ba657600080fd5b5061038a60048036036020811015610bbd57600080fd5b5035611f35565b348015610bd057600080fd5b5061038a60048036036020811015610be757600080fd5b50356001600160a01b0316611fb1565b348015610c0357600080fd5b506104a2612097565b348015610c1857600080fd5b506104c96120cb565b610c296120da565b6000546001600160a01b03908116911614610c79576040805162461bcd60e51b815260206004820181905260248201526000805160206134f6833981519152604482015290519081900360640190fd5b6000601455600a8111610c8c5760148190555b50565b60118054604080516020601f6002600019610100600188161502019095169490940493840181900481028201810190925282815260609390929091830182828015610d1b5780601f10610cf057610100808354040283529160200191610d1b565b820191906000526020600020905b815481529060010190602001808311610cfe57829003601f168201915b5050505050905090565b6000610d39610d326120da565b84846120de565b5060015b92915050565b610d4b6120da565b6000546001600160a01b03908116911614610d9b576040805162461bcd60e51b815260206004820181905260248201526000805160206134f6833981519152604482015290519081900360640190fd5b633b9aca0002601e55565b60105490565b7f000000000000000000000000000000000000000000000000000000000000000081565b600e5490565b601a5481565b6001600160a01b0383166000908152600760205260408120544211610e41576040805162461bcd60e51b815260206004820152601660248201527515d85b1b195d081a5cc81cdd1a5b1b081b1bd8dad95960521b604482015290519081900360640190fd5b610e4c8484846121ca565b610ebc84610e586120da565b610eb7856040518060600160405280602881526020016134ce602891396001600160a01b038a16600090815260066020526040812090610e966120da565b6001600160a01b031681526020810191909152604001600020549190612410565b6120de565b5060019392505050565b6000600f54821115610f095760405162461bcd60e51b815260040180806020018281038252602a815260200180613413602a913960400191505060405180910390fd5b6000610f136124a7565b9050610f1f83826124ca565b9150505b919050565b60135460ff1690565b610f396120da565b6000546001600160a01b03908116911614610f89576040805162461bcd60e51b815260206004820181905260248201526000805160206134f6833981519152604482015290519081900360640190fd5b6001600160a01b0381166000908152600a602052604090205460ff16610ff6576040805162461bcd60e51b815260206004820152601b60248201527f4163636f756e7420697320616c7265616479206578636c756465640000000000604482015290519081900360640190fd5b60005b600b548110156110ee57816001600160a01b0316600b828154811061101a57fe5b6000918252602090912001546001600160a01b031614156110e657600b8054600019810190811061104757fe5b600091825260209091200154600b80546001600160a01b03909216918390811061106d57fe5b600091825260208083209190910180546001600160a01b0319166001600160a01b039485161790559184168152600582526040808220829055600a90925220805460ff19169055600b8054806110bf57fe5b600082815260209020810160001990810180546001600160a01b03191690550190556110ee565b600101610ff9565b5050565b6110fa6120da565b6000546001600160a01b0390811691161461114a576040805162461bcd60e51b815260206004820181905260248201526000805160206134f6833981519152604482015290519081900360640190fd5b600060185560058111610c8c57601855565b6000610d396111696120da565b84610eb7856006600061117a6120da565b6001600160a01b03908116825260208083019390935260409182016000908120918c168152925290205490612513565b6111b26120da565b6000546001600160a01b03908116911614611202576040805162461bcd60e51b815260206004820181905260248201526000805160206134f6833981519152604482015290519081900360640190fd5b6001600160a01b03919091166000908152600960205260409020805460ff1916911515919091179055565b60145481565b600061123d6120da565b6001600160a01b0381166000908152600a602052604090205490915060ff16156112985760405162461bcd60e51b815260040180806020018281038252602c8152602001806135a8602c913960400191505060405180910390fd5b60006112a38361256d565b505050506001600160a01b0384166000908152600460205260409020549192506112cf919050826125bc565b6001600160a01b038316600090815260046020526040902055600f546112f590826125bc565b600f556010546113059084612513565b601055505050565b6113156120da565b6000546001600160a01b03908116911614611365576040805162461bcd60e51b815260206004820181905260248201526000805160206134f6833981519152604482015290519081900360640190fd5b6001600160a01b03166000908152600860205260409020805460ff19166001179055565b6000600e548311156113e2576040805162461bcd60e51b815260206004820152601f60248201527f416d6f756e74206d757374206265206c657373207468616e20737570706c7900604482015290519081900360640190fd5b816114015760006113f28461256d565b50939550610d3d945050505050565b600061140c8461256d565b50929550610d3d945050505050565b6114236120da565b6000546001600160a01b03908116911614611473576040805162461bcd60e51b815260206004820181905260248201526000805160206134f6833981519152604482015290519081900360640190fd5b6000601a5560058111610c8c57601a55565b7f000000000000000000000000000000000000000000000000000000000000000081565b601c54610100900460ff1681565b6114bf6120da565b6001600160a01b03166114d061175b565b6001600160a01b03161461152b576040805162461bcd60e51b815260206004820152601b60248201527f43616c6c657220697320646f206e6f74206861766520706f7765720000000000604482015290519081900360640190fd5b60006115356120da565b6040519091506001600160a01b038216904780156108fc02916000818181858888f193505050501580156110ee573d6000803e3d6000fd5b6115756120da565b6000546001600160a01b039081169116146115c5576040805162461bcd60e51b815260206004820181905260248201526000805160206134f6833981519152604482015290519081900360640190fd5b6001600160a01b0381166000908152600a602052604090205460ff1615611633576040805162461bcd60e51b815260206004820152601b60248201527f4163636f756e7420697320616c7265616479206578636c756465640000000000604482015290519081900360640190fd5b6001600160a01b0381166000908152600460205260409020541561168d576001600160a01b03811660009081526004602052604090205461167390610ec6565b6001600160a01b0382166000908152600560205260409020555b6001600160a01b03166000818152600a60205260408120805460ff19166001908117909155600b805491820181559091527f0175b7a638427703f0dbe7bb9bbf987a2551717b34e79f33b5b1008d1fa01db90180546001600160a01b0319169091179055565b6001600160a01b031660009081526008602052604090205460ff1690565b6001600160a01b031660009081526009602052604090205460ff1690565b8042016007600061173e6120da565b6001600160a01b0316815260208101919091526040016000205550565b6002546001600160a01b031690565b60165481565b6001600160a01b0381166000908152600a602052604081205460ff16156117b057506001600160a01b038116600090815260056020526040902054610f23565b6001600160a01b038216600090815260046020526040902054610d3d90610ec6565b6117da6120da565b6000546001600160a01b0390811691161461182a576040805162461bcd60e51b815260206004820181905260248201526000805160206134f6833981519152604482015290519081900360640190fd5b600080546040516001600160a01b0390911690600080516020613516833981519152908390a3600080546001600160a01b0319169055565b601d5481565b6118706120da565b6000546001600160a01b039081169116146118c0576040805162461bcd60e51b815260206004820181905260248201526000805160206134f6833981519152604482015290519081900360640190fd5b6118e160646118db6000600e546125fe90919063ffffffff16565b906124ca565b601d556118ec612657565b601c805461ff0019169055565b6001600160a01b03166000908152600a602052604090205460ff1690565b6000546001600160a01b031690565b61192e6120da565b6000546001600160a01b0390811691161461197e576040805162461bcd60e51b815260206004820181905260248201526000805160206134f6833981519152604482015290519081900360640190fd5b600060165560648111610c8c57601655565b6119986120da565b6000546001600160a01b039081169116146119e8576040805162461bcd60e51b815260206004820181905260248201526000805160206134f6833981519152604482015290519081900360640190fd5b600d80546001600160a01b0319166001600160a01b0392909216919091179055565b60128054604080516020601f6002600019610100600188161502019095169490940493840181900481028201810190925282815260609390929091830182828015610d1b5780601f10610cf057610100808354040283529160200191610d1b565b6000610d39611a786120da565b84610eb7856040518060600160405280602581526020016135f76025913960066000611aa26120da565b6001600160a01b03908116825260208083019390935260409182016000908120918d16815292529020549190612410565b6001546001600160a01b03163314611b1c5760405162461bcd60e51b81526004018080602001828103825260238152602001806135d46023913960400191505060405180910390fd5b6003544211611b72576040805162461bcd60e51b815260206004820152601f60248201527f436f6e7472616374206973206c6f636b656420756e74696c2037206461797300604482015290519081900360640190fd5b600154600080546040516001600160a01b03938416939091169160008051602061351683398151915291a3600154600080546001600160a01b0319166001600160a01b03909216919091179055565b600060076000611bcf6120da565b6001600160a01b03166001600160a01b03168152602001908152602001600020544211611c3c576040805162461bcd60e51b815260206004820152601660248201527515d85b1b195d081a5cc81cdd1a5b1b081b1bd8dad95960521b604482015290519081900360640190fd5b610d39611c476120da565b84846121ca565b60185481565b60035490565b611c626120da565b6000546001600160a01b03908116911614611cb2576040805162461bcd60e51b815260206004820181905260248201526000805160206134f6833981519152604482015290519081900360640190fd5b633b9aca0002601d55565b611cc56120da565b6000546001600160a01b03908116911614611d15576040805162461bcd60e51b815260206004820181905260248201526000805160206134f6833981519152604482015290519081900360640190fd5b601c8054821515610100810261ff00199092169190911790915560408051918252517f53726dfcaf90650aa7eb35524f4d3220f07413c8d6cb404cc8c18bf5591bc1599181900360200190a150565b600c546001600160a01b031690565b611d7b6120da565b6000546001600160a01b03908116911614611dcb576040805162461bcd60e51b815260206004820181905260248201526000805160206134f6833981519152604482015290519081900360640190fd5b600c80546001600160a01b0319166001600160a01b0392909216919091179055565b601e5481565b611dfb6120da565b6000546001600160a01b03908116911614611e4b576040805162461bcd60e51b815260206004820181905260248201526000805160206134f6833981519152604482015290519081900360640190fd5b60008054600180546001600160a01b03199081166001600160a01b038416179091551681554282016003556040518190600080516020613516833981519152908290a350565b6001600160a01b03918216600090815260066020908152604080832093909416825291909152205490565b611ec46120da565b6000546001600160a01b03908116911614611f14576040805162461bcd60e51b815260206004820181905260248201526000805160206134f6833981519152604482015290519081900360640190fd5b6001600160a01b03166000908152600860205260409020805460ff19169055565b611f3d6120da565b6000546001600160a01b03908116911614611f8d576040805162461bcd60e51b815260206004820181905260248201526000805160206134f6833981519152604482015290519081900360640190fd5b633b9aca008102601d55611f9f6126b6565b50601c805461ff001916610100179055565b611fb96120da565b6000546001600160a01b03908116911614612009576040805162461bcd60e51b815260206004820181905260248201526000805160206134f6833981519152604482015290519081900360640190fd5b6001600160a01b03811661204e5760405162461bcd60e51b815260040180806020018281038252602681526020018061343d6026913960400191505060405180910390fd5b600080546040516001600160a01b038085169392169160008051602061351683398151915291a3600080546001600160a01b0319166001600160a01b0392909216919091179055565b6000600760006120a56120da565b6001600160a01b03166001600160a01b0316815260200190815260200160002054905090565b600d546001600160a01b031690565b3390565b6001600160a01b0383166121235760405162461bcd60e51b81526004018080602001828103825260248152602001806135846024913960400191505060405180910390fd5b6001600160a01b0382166121685760405162461bcd60e51b81526004018080602001828103825260228152602001806134636022913960400191505060405180910390fd5b6001600160a01b03808416600081815260066020908152604080832094871680845294825291829020859055815185815291517f8c5be1e5ebec7d5bd14f71427d1e84f3dd0314c0f7b2291e5b200ac8c7c3b9259281900390910190a3505050565b6001600160a01b03831661220f5760405162461bcd60e51b815260040180806020018281038252602581526020018061355f6025913960400191505060405180910390fd5b6001600160a01b0382166122545760405162461bcd60e51b81526004018080602001828103825260238152602001806133f06023913960400191505060405180910390fd5b600081116122935760405162461bcd60e51b81526004018080602001828103825260298152602001806135366029913960400191505060405180910390fd5b6001600160a01b03831660009081526009602052604090205460ff161580156122d557506001600160a01b03821660009081526009602052604090205460ff16155b1561231b57601d5481111561231b5760405162461bcd60e51b81526004018080602001828103825260288152602001806134856028913960400191505060405180910390fd5b600061232630611770565b9050601d5481106123365750601d545b601e548110801590819061234d5750601c5460ff16155b801561238b57507f00000000000000000000000000000000000000000000000000000000000000006001600160a01b0316856001600160a01b031614155b801561239e5750601c54610100900460ff165b156123b157601e5491506123b1826126d0565b6001600160a01b03851660009081526008602052604090205460019060ff16806123f357506001600160a01b03851660009081526008602052604090205460ff165b156123fc575060005b612408868686846129bc565b505050505050565b6000818484111561249f5760405162461bcd60e51b81526004018080602001828103825283818151815260200191508051906020019080838360005b8381101561246457818101518382015260200161244c565b50505050905090810190601f1680156124915780820380516001836020036101000a031916815260200191505b509250505060405180910390fd5b505050900390565b60008060006124b4612b30565b90925090506124c382826124ca565b9250505090565b600061250c83836040518060400160405280601a81526020017f536166654d6174683a206469766973696f6e206279207a65726f000000000000815250612c93565b9392505050565b60008282018381101561250c576040805162461bcd60e51b815260206004820152601b60248201527f536166654d6174683a206164646974696f6e206f766572666c6f770000000000604482015290519081900360640190fd5b60008060008060008060008060006125848a612cf8565b92509250925060008060006125a28d868661259d6124a7565b612d34565b919f909e50909c50959a5093985091965092945050505050565b600061250c83836040518060400160405280601e81526020017f536166654d6174683a207375627472616374696f6e206f766572666c6f770000815250612410565b60008261260d57506000610d3d565b8282028284828161261a57fe5b041461250c5760405162461bcd60e51b81526004018080602001828103825260218152602001806134ad6021913960400191505060405180910390fd5b6014541580156126675750601654155b80156126735750601a54155b801561267f5750601854155b15612689576126b4565b601480546015556016805460175560188054601955601a8054601b5560009384905591839055829055555b565b601554601455601754601655601954601855601b54601a55565b601c805460ff1916600117905560006126ea8260026124ca565b905060006126f883836125bc565b601854601654601a5492935091909101014761271384612d84565b600061271f47836125bc565b9050600061274260185461273c86856124ca90919063ffffffff16565b906125fe565b9050600061275f60185461273c87896124ca90919063ffffffff16565b9050600061277c601a5461273c88876124ca90919063ffffffff16565b90506000612799601a5461273c898b6124ca90919063ffffffff16565b905060006127b1836127ab88886125bc565b906125bc565b905060006127c3836127ab8c886125bc565b600c546040519192506000916060916001600160a01b03169089908481818185875af1925050503d8060008114612816576040519150601f19603f3d011682016040523d82523d6000602084013e61281b565b606091505b50915091508115612873576128353061dead8960006129bc565b60408051888152905161dead9130917fddf252ad1be2c89b69c2b068fc378daa952ba7f163c4a11628f55a4df523b3ef9181900360200190a361288c565b600c5461288c9088908a906001600160a01b0316612f93565b600d546040516001600160a01b03909116908790600081818185875af1925050503d80600081146128d9576040519150601f19603f3d011682016040523d82523d6000602084013e6128de565b606091505b5090925090508115612937576128f93061dead8760006129bc565b60408051868152905161dead9130917fddf252ad1be2c89b69c2b068fc378daa952ba7f163c4a11628f55a4df523b3ef9181900360200190a3612950565b600d5461295090869088906001600160a01b0316612f93565b612962838561295d61175b565b612f93565b604080518e8152602081018b90528082018e905290517f17bbfb9a6069321b6ded73bd96327c9e6b7212a5cd51ff219cd61370acafb5619181900360600190a15050601c805460ff19169055505050505050505050505050565b806129c9576129c9612657565b6001600160a01b0384166000908152600a602052604090205460ff168015612a0a57506001600160a01b0383166000908152600a602052604090205460ff16155b15612a1f57612a1a84848461307e565b612b1d565b6001600160a01b0384166000908152600a602052604090205460ff16158015612a6057506001600160a01b0383166000908152600a602052604090205460ff165b15612a7057612a1a8484846131a2565b6001600160a01b0384166000908152600a602052604090205460ff16158015612ab257506001600160a01b0383166000908152600a602052604090205460ff16155b15612ac257612a1a84848461324b565b6001600160a01b0384166000908152600a602052604090205460ff168015612b0257506001600160a01b0383166000908152600a602052604090205460ff165b15612b1257612a1a84848461328f565b612b1d84848461324b565b80612b2a57612b2a6126b6565b50505050565b600f54600e546000918291825b600b54811015612c61578260046000600b8481548110612b5957fe5b60009182526020808320909101546001600160a01b031683528201929092526040019020541180612bbe57508160056000600b8481548110612b9757fe5b60009182526020808320909101546001600160a01b03168352820192909252604001902054115b15612bd557600f54600e5494509450505050612c8f565b612c1560046000600b8481548110612be957fe5b60009182526020808320909101546001600160a01b0316835282019290925260400190205484906125bc565b9250612c5760056000600b8481548110612c2b57fe5b60009182526020808320909101546001600160a01b0316835282019290925260400190205483906125bc565b9150600101612b3d565b50600e54600f54612c71916124ca565b821015612c8957600f54600e54935093505050612c8f565b90925090505b9091565b60008183612ce25760405162461bcd60e51b815260206004820181815283516024840152835190928392604490910191908501908083836000831561246457818101518382015260200161244c565b506000838581612cee57fe5b0495945050505050565b600080600080612d0785613302565b90506000612d148661331e565b90506000612d26826127ab89866125bc565b979296509094509092505050565b6000808080612d4388866125fe565b90506000612d5188876125fe565b90506000612d5f88886125fe565b90506000612d71826127ab86866125bc565b939b939a50919850919650505050505050565b60408051600280825260608083018452926020830190803683370190505090503081600081518110612db257fe5b60200260200101906001600160a01b031690816001600160a01b0316815250507f00000000000000000000000000000000000000000000000000000000000000006001600160a01b031663ad5c46486040518163ffffffff1660e01b815260040160206040518083038186803b158015612e2b57600080fd5b505afa158015612e3f573d6000803e3d6000fd5b505050506040513d6020811015612e5557600080fd5b5051815182906001908110612e6657fe5b60200260200101906001600160a01b031690816001600160a01b031681525050612eb1307f0000000000000000000000000000000000000000000000000000000000000000846120de565b7f00000000000000000000000000000000000000000000000000000000000000006001600160a01b031663791ac9478360008430426040518663ffffffff1660e01b81526004018086815260200185815260200180602001846001600160a01b03168152602001838152602001828103825285818151815260200191508051906020019060200280838360005b83811015612f56578181015183820152602001612f3e565b505050509050019650505050505050600060405180830381600087803b158015612f7f57600080fd5b505af1158015612408573d6000803e3d6000fd5b612fbe307f0000000000000000000000000000000000000000000000000000000000000000856120de565b6040805163f305d71960e01b81523060048201526024810185905260006044820181905260648201526001600160a01b0383811660848301524260a483015291517f00000000000000000000000000000000000000000000000000000000000000009092169163f305d71991859160c480830192606092919082900301818588803b15801561304c57600080fd5b505af1158015613060573d6000803e3d6000fd5b50505050506040513d606081101561307757600080fd5b5050505050565b6000806000806000806130908761256d565b6001600160a01b038f16600090815260056020526040902054959b509399509197509550935091506130c290886125bc565b6001600160a01b038a166000908152600560209081526040808320939093556004905220546130f190876125bc565b6001600160a01b03808b1660009081526004602052604080822093909355908a16815220546131209086612513565b6001600160a01b03891660009081526004602052604090205561314281613342565b61314c84836133cb565b876001600160a01b0316896001600160a01b03167fddf252ad1be2c89b69c2b068fc378daa952ba7f163c4a11628f55a4df523b3ef856040518082815260200191505060405180910390a3505050505050505050565b6000806000806000806131b48761256d565b6001600160a01b038f16600090815260046020526040902054959b509399509197509550935091506131e690876125bc565b6001600160a01b03808b16600090815260046020908152604080832094909455918b1681526005909152205461321c9084612513565b6001600160a01b0389166000908152600560209081526040808320939093556004905220546131209086612513565b60008060008060008061325d8761256d565b6001600160a01b038f16600090815260046020526040902054959b509399509197509550935091506130f190876125bc565b6000806000806000806132a18761256d565b6001600160a01b038f16600090815260056020526040902054959b509399509197509550935091506132d390886125bc565b6001600160a01b038a166000908152600560209081526040808320939093556004905220546131e690876125bc565b6000610d3d60646118db601454856125fe90919063ffffffff16565b6000610d3d60646118db601a546018546016540101856125fe90919063ffffffff16565b600061334c6124a7565b9050600061335a83836125fe565b306000908152600460205260409020549091506133779082612513565b30600090815260046020908152604080832093909355600a9052205460ff16156133c657306000908152600560205260409020546133b59084612513565b306000908152600560205260409020555b505050565b600f546133d890836125bc565b600f556010546133e89082612513565b601055505056fe45524332303a207472616e7366657220746f20746865207a65726f2061646472657373416d6f756e74206d757374206265206c657373207468616e20746f74616c207265666c656374696f6e734f776e61626c653a206e6577206f776e657220697320746865207a65726f206164647265737345524332303a20617070726f766520746f20746865207a65726f20616464726573735472616e7366657220616d6f756e74206578636565647320746865206d61785478416d6f756e742e536166654d6174683a206d756c7469706c69636174696f6e206f766572666c6f7745524332303a207472616e7366657220616d6f756e74206578636565647320616c6c6f77616e63654f776e61626c653a2063616c6c6572206973206e6f7420746865206f776e65728be0079c531659141344cd1fd0a4f28419497f9722a3daafe3b4186f6b6457e05472616e7366657220616d6f756e74206d7573742062652067726561746572207468616e207a65726f45524332303a207472616e736665722066726f6d20746865207a65726f206164647265737345524332303a20617070726f76652066726f6d20746865207a65726f20616464726573734578636c75646564206164647265737365732063616e6e6f742063616c6c20746869732066756e6374696f6e596f7520646f6e27742068617665207065726d697373696f6e20746f20756e6c6f636b45524332303a2064656372656173656420616c6c6f77616e63652062656c6f77207a65726fa2646970667358221220e6ea3806d9d17350fbc195987863c299ab243088485d3d8ab00ce24e7df381fb64736f6c634300060c0033

Deployed ByteCode Sourcemap

25811:23676:0:-:0;;;;;;;;;;;;;;;;;;;;;;;;;;;;;;;;;;;;;;;;;;;;;;;;;;;;;;;;;;;;;;;;;;;;;;;;;;;;;;;;;;;;;;;;;;;;;;;;;;;;;;;;;;;;;;;;;;;;;;;;;;;;;;;;;;;;;;;;;;;;;;;;;;;;;;;;;;;;;;;;;;;;;;;;;;;;;;;;;;;;;;;;;;;;;;;;;;;;;;;;;;;;;;;;;;;;;;;;;;;;;;;;;;;;;;;;;;;;;;;;;;;;;;;;;;;;;;;;;;;;;;;;;;;;;;;;;;;;;;;;;;;;;;;;;;;;;;;;;;;;;;;;;;;;;;;;;;;;;;;;;;;;;;;;;;;;;;;;;;;;;;;;;;;;;;;;;;;;;;;;;;;;;;;;;;;;;;;;;;;;;;;;;;;;;;;;;;;;;;;;;;;;;;;;;;35640:157;;;;;;;;;;;;;;;;;;;;;;;;;;-1:-1:-1;35640:157:0;;:::i;:::-;;29201:83;;;;;;;;;;;;;:::i;:::-;;;;;;;;;;;;;;;;;;;;;;;;;;;;;;;;;;;;;;;;;;;;;;;;;;;;;;;;;;;;;;;;;;;;;;;;;;;;;;;;;;;;;;;;;;;;;;;;;;;;30204:161;;;;;;;;;;;;;;;;;;;;;;;;;;-1:-1:-1;;;;;;30204:161:0;;;;;;;;:::i;:::-;;;;;;;;;;;;;;;;;;34966:140;;;;;;;;;;;;;;;;;;;;;;;;;;-1:-1:-1;34966:140:0;;:::i;31406:87::-;;;;;;;;;;;;;:::i;:::-;;;;;;;;;;;;;;;;27163:51;;;;;;;;;;;;;:::i;:::-;;;;-1:-1:-1;;;;;27163:51:0;;;;;;;;;;;;;;29478:95;;;;;;;;;;;;;:::i;27056:32::-;;;;;;;;;;;;;:::i;30373:394::-;;;;;;;;;;;;;;;;;;;;;;;;;;-1:-1:-1;;;;;;30373:394:0;;;;;;;;;;;;;;;;;:::i;32456:253::-;;;;;;;;;;;;;;;;;;;;;;;;;;-1:-1:-1;32456:253:0;;:::i;29387:83::-;;;;;;;;;;;;;:::i;:::-;;;;;;;;;;;;;;;;;;;33172:479;;;;;;;;;;;;;;;;;;;;;;;;;;-1:-1:-1;33172:479:0;-1:-1:-1;;;;;33172:479:0;;:::i;35472:156::-;;;;;;;;;;;;;;;;;;;;;;;;;;-1:-1:-1;35472:156:0;;:::i;30775:218::-;;;;;;;;;;;;;;;;;;;;;;;;;;-1:-1:-1;;;;;;30775:218:0;;;;;;;;:::i;34575:141::-;;;;;;;;;;;;;;;;;;;;;;;;;;-1:-1:-1;;;;;;34575:141:0;;;;;;;;;;:::i;26777:26::-;;;;;;;;;;;;;:::i;31627:377::-;;;;;;;;;;;;;;;;;;;;;;;;;;-1:-1:-1;31627:377:0;;:::i;34317:111::-;;;;;;;;;;;;;;;;;;;;;;;;;;-1:-1:-1;34317:111:0;-1:-1:-1;;;;;34317:111:0;;:::i;32012:436::-;;;;;;;;;;;;;;;;;;;;;;;;;;-1:-1:-1;32012:436:0;;;;;;;;;:::i;35809:192::-;;;;;;;;;;;;;;;;;;;;;;;;;;-1:-1:-1;35809:192:0;;:::i;27221:38::-;;;;;;;;;;;;;:::i;27300:40::-;;;;;;;;;;;;;:::i;37006:231::-;;;;;;;;;;;;;:::i;32717:447::-;;;;;;;;;;;;;;;;;;;;;;;;;;-1:-1:-1;32717:447:0;-1:-1:-1;;;;;32717:447:0;;:::i;40754:123::-;;;;;;;;;;;;;;;;;;;;;;;;;;-1:-1:-1;40754:123:0;-1:-1:-1;;;;;40754:123:0;;:::i;34440:127::-;;;;;;;;;;;;;;;;;;;;;;;;;;-1:-1:-1;34440:127:0;-1:-1:-1;;;;;34440:127:0;;:::i;31505:108::-;;;;;;;;;;;;;;;;;;;;;;;;;;-1:-1:-1;31505:108:0;;:::i;15730:90::-;;;;;;;;;;;;;:::i;26864:32::-;;;;;;;;;;;;;:::i;29581:198::-;;;;;;;;;;;;;;;;;;;;;;;;;;-1:-1:-1;29581:198:0;-1:-1:-1;;;;;29581:198:0;;:::i;16382:148::-;;;;;;;;;;;;;:::i;27353:54::-;;;;;;;;;;;;;:::i;36523:193::-;;;;;;;;;;;;;:::i;31278:120::-;;;;;;;;;;;;;;;;;;;;;;;;;;-1:-1:-1;31278:120:0;-1:-1:-1;;;;;31278:120:0;;:::i;15639:79::-;;;;;;;;;;;;;:::i;36013:194::-;;;;;;;;;;;;;;;;;;;;;;;;;;-1:-1:-1;36013:194:0;;:::i;34833:121::-;;;;;;;;;;;;;;;;;;;;;;;;;;-1:-1:-1;34833:121:0;-1:-1:-1;;;;;34833:121:0;;:::i;29292:87::-;;;;;;;;;;;;;:::i;31001:269::-;;;;;;;;;;;;;;;;;;;;;;;;;;-1:-1:-1;;;;;;31001:269:0;;;;;;;;:::i;17404:305::-;;;;;;;;;;;;;:::i;29791:254::-;;;;;;;;;;;;;;;;;;;;;;;;;;-1:-1:-1;;;;;;29791:254:0;;;;;;;;:::i;26969:26::-;;;;;;;;;;;;;:::i;16937:89::-;;;;;;;;;;;;;:::i;36219:103::-;;;;;;;;;;;;;;;;;;;;;;;;;;-1:-1:-1;36219:103:0;;:::i;36330:171::-;;;;;;;;;;;;;;;;;;;;;;;;;;-1:-1:-1;36330:171:0;;;;:::i;35114:100::-;;;;;;;;;;;;;:::i;34724:97::-;;;;;;;;;;;;;;;;;;;;;;;;;;-1:-1:-1;34724:97:0;-1:-1:-1;;;;;34724:97:0;;:::i;27466:67::-;;;;;;;;;;;;;:::i;17102:226::-;;;;;;;;;;;;;;;;;;;;;;;;;;-1:-1:-1;17102:226:0;;:::i;30053:143::-;;;;;;;;;;;;;;;;;;;;;;;;;;-1:-1:-1;;;;;;30053:143:0;;;;;;;;;;:::i;35350:110::-;;;;;;;;;;;;;;;;;;;;;;;;;;-1:-1:-1;35350:110:0;-1:-1:-1;;;;;35350:110:0;;:::i;36730:170::-;;;;;;;;;;;;;;;;;;;;;;;;;;-1:-1:-1;36730:170:0;;:::i;16685:244::-;;;;;;;;;;;;;;;;;;;;;;;;;;-1:-1:-1;16685:244:0;-1:-1:-1;;;;;16685:244:0;;:::i;29087:106::-;;;;;;;;;;;;;:::i;35226:112::-;;;;;;;;;;;;;:::i;35640:157::-;15963:12;:10;:12::i;:::-;15953:6;;-1:-1:-1;;;;;15953:6:0;;;:22;;;15945:67;;;;;-1:-1:-1;;;15945:67:0;;;;;;;;;;;;;-1:-1:-1;;;;;;;;;;;15945:67:0;;;;;;;;;;;;;;;35722:1:::1;35712:7;:11:::0;35747:2:::1;35737:12:::0;::::1;35734:54;;35763:7;:16:::0;;;35734:54:::1;35640:157:::0;:::o;29201:83::-;29271:5;29264:12;;;;;;;;-1:-1:-1;;29264:12:0;;;;;;;;;;;;;;;;;;;;;;;;;;;;;;;;29238:13;;29264:12;;29271:5;;29264:12;;29271:5;29264:12;;;;;;;;;;;;;;;;;;;;;;;;;;;;;;;;;;;;;;;;;;;;;;;;;;;;;;;;;;;;;;;;;;;29201:83;:::o;30204:161::-;30279:4;30296:39;30305:12;:10;:12::i;:::-;30319:7;30328:6;30296:8;:39::i;:::-;-1:-1:-1;30353:4:0;30204:161;;;;;:::o;34966:140::-;15963:12;:10;:12::i;:::-;15953:6;;-1:-1:-1;;;;;15953:6:0;;;:22;;;15945:67;;;;;-1:-1:-1;;;15945:67:0;;;;;;;;;;;;;-1:-1:-1;;;;;;;;;;;15945:67:0;;;;;;;;;;;;;;;35091:7:::1;35078:20;35046:29;:52:::0;34966:140::o;31406:87::-;31475:10;;31406:87;:::o;27163:51::-;;;:::o;29478:95::-;29558:7;;29478:95;:::o;27056:32::-;;;;:::o;30373:394::-;-1:-1:-1;;;;;30514:16:0;;30471:4;30514:16;;;:8;:16;;;;;;30496:15;:34;30488:70;;;;;-1:-1:-1;;;30488:70:0;;;;;;;;;;;;-1:-1:-1;;;30488:70:0;;;;;;;;;;;;;;;30569:36;30579:6;30587:9;30598:6;30569:9;:36::i;:::-;30616:121;30625:6;30633:12;:10;:12::i;:::-;30647:89;30685:6;30647:89;;;;;;;;;;;;;;;;;-1:-1:-1;;;;;30647:19:0;;;;;;:11;:19;;;;;;30667:12;:10;:12::i;:::-;-1:-1:-1;;;;;30647:33:0;;;;;;;;;;;;-1:-1:-1;30647:33:0;;;:89;:37;:89::i;:::-;30616:8;:121::i;:::-;-1:-1:-1;30755:4:0;30373:394;;;;;:::o;32456:253::-;32522:7;32561;;32550;:18;;32542:73;;;;-1:-1:-1;;;32542:73:0;;;;;;;;;;;;;;;;;;;;;;;;;;;;;;;;;;;;32626:19;32649:10;:8;:10::i;:::-;32626:33;-1:-1:-1;32677:24:0;:7;32626:33;32677:11;:24::i;:::-;32670:31;;;32456:253;;;;:::o;29387:83::-;29453:9;;;;29387:83;:::o;33172:479::-;15963:12;:10;:12::i;:::-;15953:6;;-1:-1:-1;;;;;15953:6:0;;;:22;;;15945:67;;;;;-1:-1:-1;;;15945:67:0;;;;;;;;;;;;;-1:-1:-1;;;;;;;;;;;15945:67:0;;;;;;;;;;;;;;;-1:-1:-1;;;;;33254:20:0;::::1;;::::0;;;:11:::1;:20;::::0;;;;;::::1;;33246:60;;;::::0;;-1:-1:-1;;;33246:60:0;;::::1;;::::0;::::1;::::0;::::1;::::0;;;;::::1;::::0;;;;;;;;;;;;;::::1;;33322:9;33317:327;33341:9;:16:::0;33337:20;::::1;33317:327;;;33399:7;-1:-1:-1::0;;;;;33383:23:0::1;:9;33393:1;33383:12;;;;;;;;;::::0;;;::::1;::::0;;;::::1;::::0;-1:-1:-1;;;;;33383:12:0::1;:23;33379:254;;;33442:9;33452:16:::0;;-1:-1:-1;;33452:20:0;;;33442:31;::::1;;;;;;::::0;;;::::1;::::0;;;::::1;::::0;33427:9:::1;:12:::0;;-1:-1:-1;;;;;33442:31:0;;::::1;::::0;33437:1;;33427:12;::::1;;;;;;::::0;;;::::1;::::0;;;;;;::::1;:46:::0;;-1:-1:-1;;;;;;33427:46:0::1;-1:-1:-1::0;;;;;33427:46:0;;::::1;;::::0;;33492:16;;::::1;::::0;;:7:::1;:16:::0;;;;;;:20;;;33531:11:::1;:20:::0;;;;:28;;-1:-1:-1;;33531:28:0::1;::::0;;33578:9:::1;:15:::0;;;::::1;;;;;::::0;;;::::1;::::0;;;;-1:-1:-1;;33578:15:0;;;;;-1:-1:-1;;;;;;33578:15:0::1;::::0;;;;;33612:5:::1;;33379:254;33359:3;;33317:327;;;;33172:479:::0;:::o;35472:156::-;15963:12;:10;:12::i;:::-;15953:6;;-1:-1:-1;;;;;15953:6:0;;;:22;;;15945:67;;;;;-1:-1:-1;;;15945:67:0;;;;;;;;;;;;;-1:-1:-1;;;;;;;;;;;15945:67:0;;;;;;;;;;;;;;;35554:1:::1;35544:7;:11:::0;35579:1:::1;35569:11:::0;::::1;35566:53;;35594:7;:16:::0;35472:156::o;30775:218::-;30863:4;30880:83;30889:12;:10;:12::i;:::-;30903:7;30912:50;30951:10;30912:11;:25;30924:12;:10;:12::i;:::-;-1:-1:-1;;;;;30912:25:0;;;;;;;;;;;;;;;;;-1:-1:-1;30912:25:0;;;:34;;;;;;;;;;;:38;:50::i;34575:141::-;15963:12;:10;:12::i;:::-;15953:6;;-1:-1:-1;;;;;15953:6:0;;;:22;;;15945:67;;;;;-1:-1:-1;;;15945:67:0;;;;;;;;;;;;;-1:-1:-1;;;;;;;;;;;15945:67:0;;;;;;;;;;;;;;;-1:-1:-1;;;;;34669:29:0;;;::::1;;::::0;;;:20:::1;:29;::::0;;;;:39;;-1:-1:-1;;34669:39:0::1;::::0;::::1;;::::0;;;::::1;::::0;;34575:141::o;26777:26::-;;;;:::o;31627:377::-;31679:14;31696:12;:10;:12::i;:::-;-1:-1:-1;;;;;31728:19:0;;;;;;:11;:19;;;;;;31679:29;;-1:-1:-1;31728:19:0;;31727:20;31719:77;;;;-1:-1:-1;;;31719:77:0;;;;;;;;;;;;;;;;;;;;;;;;;;;;;;;;;;;;31808:15;31832:19;31843:7;31832:10;:19::i;:::-;-1:-1:-1;;;;;;;;;31880:15:0;;;;;;:7;:15;;;;;;31807:44;;-1:-1:-1;31880:28:0;;:15;-1:-1:-1;31807:44:0;31880:19;:28::i;:::-;-1:-1:-1;;;;;31862:15:0;;;;;;:7;:15;;;;;:46;31929:7;;:20;;31941:7;31929:11;:20::i;:::-;31919:7;:30;31973:10;;:23;;31988:7;31973:14;:23::i;:::-;31960:10;:36;-1:-1:-1;;;31627:377:0:o;34317:111::-;15963:12;:10;:12::i;:::-;15953:6;;-1:-1:-1;;;;;15953:6:0;;;:22;;;15945:67;;;;;-1:-1:-1;;;15945:67:0;;;;;;;;;;;;;-1:-1:-1;;;;;;;;;;;15945:67:0;;;;;;;;;;;;;;;-1:-1:-1;;;;;34386:27:0::1;;::::0;;;:18:::1;:27;::::0;;;;:34;;-1:-1:-1;;34386:34:0::1;34416:4;34386:34;::::0;;34317:111::o;32012:436::-;32102:7;32141;;32130;:18;;32122:62;;;;;-1:-1:-1;;;32122:62:0;;;;;;;;;;;;;;;;;;;;;;;;;;;;32200:17;32195:246;;32235:15;32259:19;32270:7;32259:10;:19::i;:::-;-1:-1:-1;32234:44:0;;-1:-1:-1;32293:14:0;;-1:-1:-1;;;;;32293:14:0;32195:246;32342:23;32373:19;32384:7;32373:10;:19::i;:::-;-1:-1:-1;32340:52:0;;-1:-1:-1;32407:22:0;;-1:-1:-1;;;;;32407:22:0;35809:192;15963:12;:10;:12::i;:::-;15953:6;;-1:-1:-1;;;;;15953:6:0;;;:22;;;15945:67;;;;;-1:-1:-1;;;15945:67:0;;;;;;;;;;;;;-1:-1:-1;;;;;;;;;;;15945:67:0;;;;;;;;;;;;;;;35909:1:::1;35893:13;:17:::0;35940:1:::1;35924:17:::0;::::1;35921:71;;35955:13;:28:::0;35809:192::o;27221:38::-;;;:::o;27300:40::-;;;;;;;;;:::o;37006:231::-;37082:12;:10;:12::i;:::-;-1:-1:-1;;;;;37066:28:0;:12;:10;:12::i;:::-;-1:-1:-1;;;;;37066:28:0;;37058:68;;;;;-1:-1:-1;;;37058:68:0;;;;;;;;;;;;;;;;;;;;;;;;;;;;37137:25;37165:12;:10;:12::i;:::-;37188:41;;37137:40;;-1:-1:-1;;;;;;37188:18:0;;;37207:21;37188:41;;;;;;;;;37207:21;37188:18;:41;;;;;;;;;;;;;;;;;;;32717:447;15963:12;:10;:12::i;:::-;15953:6;;-1:-1:-1;;;;;15953:6:0;;;:22;;;15945:67;;;;;-1:-1:-1;;;15945:67:0;;;;;;;;;;;;;-1:-1:-1;;;;;;;;;;;15945:67:0;;;;;;;;;;;;;;;-1:-1:-1;;;;;32914:20:0;::::1;;::::0;;;:11:::1;:20;::::0;;;;;::::1;;32913:21;32905:61;;;::::0;;-1:-1:-1;;;32905:61:0;;::::1;;::::0;::::1;::::0;::::1;::::0;;;;::::1;::::0;;;;;;;;;;;;;::::1;;-1:-1:-1::0;;;;;32980:16:0;::::1;32999:1;32980:16:::0;;;:7:::1;:16;::::0;;;;;:20;32977:108:::1;;-1:-1:-1::0;;;;;33056:16:0;::::1;;::::0;;;:7:::1;:16;::::0;;;;;33036:37:::1;::::0;:19:::1;:37::i;:::-;-1:-1:-1::0;;;;;33017:16:0;::::1;;::::0;;;:7:::1;:16;::::0;;;;:56;32977:108:::1;-1:-1:-1::0;;;;;33095:20:0::1;;::::0;;;:11:::1;:20;::::0;;;;:27;;-1:-1:-1;;33095:27:0::1;33118:4;33095:27:::0;;::::1;::::0;;;33133:9:::1;:23:::0;;;;::::1;::::0;;;;;;::::1;::::0;;-1:-1:-1;;;;;;33133:23:0::1;::::0;;::::1;::::0;;32717:447::o;40754:123::-;-1:-1:-1;;;;;40842:27:0;40818:4;40842:27;;;:18;:27;;;;;;;;;40754:123::o;34440:127::-;-1:-1:-1;;;;;34530:29:0;34506:4;34530:29;;;:20;:29;;;;;;;;;34440:127::o;31505:108::-;31601:4;31583:15;:22;31558:8;:22;31567:12;:10;:12::i;:::-;-1:-1:-1;;;;;31558:22:0;;;;;;;;;;;;-1:-1:-1;31558:22:0;:47;-1:-1:-1;31505:108:0:o;15730:90::-;15801:11;;-1:-1:-1;;;;;15801:11:0;15730:90;:::o;26864:32::-;;;;:::o;29581:198::-;-1:-1:-1;;;;;29671:20:0;;29647:7;29671:20;;;:11;:20;;;;;;;;29667:49;;;-1:-1:-1;;;;;;29700:16:0;;;;;;:7;:16;;;;;;29693:23;;29667:49;-1:-1:-1;;;;;29754:16:0;;;;;;:7;:16;;;;;;29734:37;;:19;:37::i;16382:148::-;15963:12;:10;:12::i;:::-;15953:6;;-1:-1:-1;;;;;15953:6:0;;;:22;;;15945:67;;;;;-1:-1:-1;;;15945:67:0;;;;;;;;;;;;;-1:-1:-1;;;;;;;;;;;15945:67:0;;;;;;;;;;;;;;;16489:1:::1;16473:6:::0;;16452:40:::1;::::0;-1:-1:-1;;;;;16473:6:0;;::::1;::::0;-1:-1:-1;;;;;;;;;;;16452:40:0;16489:1;;16452:40:::1;16520:1;16503:19:::0;;-1:-1:-1;;;;;;16503:19:0::1;::::0;;16382:148::o;27353:54::-;;;;:::o;36523:193::-;15963:12;:10;:12::i;:::-;15953:6;;-1:-1:-1;;;;;15953:6:0;;;:22;;;15945:67;;;;;-1:-1:-1;;;15945:67:0;;;;;;;;;;;;;-1:-1:-1;;;;;;;;;;;15945:67:0;;;;;;;;;;;;;;;36594:49:::1;36627:5;36594:14;36606:1;36594:7;;:11;;:14;;;;:::i;:::-;:18:::0;::::1;:49::i;:::-;36579:12;:64:::0;36654:14:::1;:12;:14::i;:::-;36679:21;:29:::0;;-1:-1:-1;;36679:29:0::1;::::0;;36523:193::o;31278:120::-;-1:-1:-1;;;;;31370:20:0;31346:4;31370:20;;;:11;:20;;;;;;;;;31278:120::o;15639:79::-;15677:7;15704:6;-1:-1:-1;;;;;15704:6:0;15639:79;:::o;36013:194::-;15963:12;:10;:12::i;:::-;15953:6;;-1:-1:-1;;;;;15953:6:0;;;:22;;;15945:67;;;;;-1:-1:-1;;;15945:67:0;;;;;;;;;;;;;-1:-1:-1;;;;;;;;;;;15945:67:0;;;;;;;;;;;;;;;36113:1:::1;36097:13;:17:::0;36144:3:::1;36128:19:::0;::::1;36125:73;;36161:13;:28:::0;36013:194::o;34833:121::-;15963:12;:10;:12::i;:::-;15953:6;;-1:-1:-1;;;;;15953:6:0;;;:22;;;15945:67;;;;;-1:-1:-1;;;15945:67:0;;;;;;;;;;;;;-1:-1:-1;;;;;;;;;;;15945:67:0;;;;;;;;;;;;;;;34917:17:::1;:29:::0;;-1:-1:-1;;;;;;34917:29:0::1;-1:-1:-1::0;;;;;34917:29:0;;;::::1;::::0;;;::::1;::::0;;34833:121::o;29292:87::-;29364:7;29357:14;;;;;;;;-1:-1:-1;;29357:14:0;;;;;;;;;;;;;;;;;;;;;;;;;;;;;;;;29331:13;;29357:14;;29364:7;;29357:14;;29364:7;29357:14;;;;;;;;;;;;;;;;;;;;;;;;31001:269;31094:4;31111:129;31120:12;:10;:12::i;:::-;31134:7;31143:96;31182:15;31143:96;;;;;;;;;;;;;;;;;:11;:25;31155:12;:10;:12::i;:::-;-1:-1:-1;;;;;31143:25:0;;;;;;;;;;;;;;;;;-1:-1:-1;31143:25:0;;;:34;;;;;;;;;;;:96;:38;:96::i;17404:305::-;17456:14;;-1:-1:-1;;;;;17456:14:0;17474:10;17456:28;17448:76;;;;-1:-1:-1;;;17448:76:0;;;;;;;;;;;;;;;;;;;;;;;;;;;;;;;;;;;;17561:9;;17543:15;:27;17535:72;;;;;-1:-1:-1;;;17535:72:0;;;;;;;;;;;;;;;;;;;;;;;;;;;;17652:14;;;17644:6;;17623:44;;-1:-1:-1;;;;;17652:14:0;;;;17644:6;;;;-1:-1:-1;;;;;;;;;;;17623:44:0;;17687:14;;;17678:23;;-1:-1:-1;;;;;;17678:23:0;-1:-1:-1;;;;;17687:14:0;;;17678:23;;;;;;17404:305::o;29791:254::-;29869:4;29912:8;:22;29921:12;:10;:12::i;:::-;-1:-1:-1;;;;;29912:22:0;-1:-1:-1;;;;;29912:22:0;;;;;;;;;;;;;29894:15;:40;29886:76;;;;;-1:-1:-1;;;29886:76:0;;;;;;;;;;;;-1:-1:-1;;;29886:76:0;;;;;;;;;;;;;;;29973:42;29983:12;:10;:12::i;:::-;29997:9;30008:6;29973:9;:42::i;26969:26::-;;;;:::o;16937:89::-;17009:9;;16937:89;:::o;36219:103::-;15963:12;:10;:12::i;:::-;15953:6;;-1:-1:-1;;;;;15953:6:0;;;:22;;;15945:67;;;;;-1:-1:-1;;;15945:67:0;;;;;;;;;;;;;-1:-1:-1;;;;;;;;;;;15945:67:0;;;;;;;;;;;;;;;36307:7:::1;36299:15;36284:12;:30:::0;36219:103::o;36330:171::-;15963:12;:10;:12::i;:::-;15953:6;;-1:-1:-1;;;;;15953:6:0;;;:22;;;15945:67;;;;;-1:-1:-1;;;15945:67:0;;;;;;;;;;;;;-1:-1:-1;;;;;;;;;;;15945:67:0;;;;;;;;;;;;;;;36407:21:::1;:32:::0;;;::::1;;;::::0;::::1;-1:-1:-1::0;;36407:32:0;;::::1;::::0;;;::::1;::::0;;;36455:38:::1;::::0;;;;;;::::1;::::0;;;;::::1;::::0;;::::1;36330:171:::0;:::o;35114:100::-;35195:11;;-1:-1:-1;;;;;35195:11:0;35114:100;:::o;34724:97::-;15963:12;:10;:12::i;:::-;15953:6;;-1:-1:-1;;;;;15953:6:0;;;:22;;;15945:67;;;;;-1:-1:-1;;;15945:67:0;;;;;;;;;;;;;-1:-1:-1;;;;;;;;;;;15945:67:0;;;;;;;;;;;;;;;34796:11:::1;:17:::0;;-1:-1:-1;;;;;;34796:17:0::1;-1:-1:-1::0;;;;;34796:17:0;;;::::1;::::0;;;::::1;::::0;;34724:97::o;27466:67::-;;;;:::o;17102:226::-;15963:12;:10;:12::i;:::-;15953:6;;-1:-1:-1;;;;;15953:6:0;;;:22;;;15945:67;;;;;-1:-1:-1;;;15945:67:0;;;;;;;;;;;;;-1:-1:-1;;;;;;;;;;;15945:67:0;;;;;;;;;;;;;;;17183:6:::1;::::0;;;17166:23;;-1:-1:-1;;;;;;17166:23:0;;::::1;-1:-1:-1::0;;;;;17183:6:0;::::1;17166:23;::::0;;;17200:19:::1;::::0;;17242:15:::1;:22:::0;::::1;17230:9;:34:::0;17280:40:::1;::::0;17183:6;;-1:-1:-1;;;;;;;;;;;17280:40:0;17183:6;;17280:40:::1;17102:226:::0;:::o;30053:143::-;-1:-1:-1;;;;;30161:18:0;;;30134:7;30161:18;;;:11;:18;;;;;;;;:27;;;;;;;;;;;;;30053:143::o;35350:110::-;15963:12;:10;:12::i;:::-;15953:6;;-1:-1:-1;;;;;15953:6:0;;;:22;;;15945:67;;;;;-1:-1:-1;;;15945:67:0;;;;;;;;;;;;;-1:-1:-1;;;;;;;;;;;15945:67:0;;;;;;;;;;;;;;;-1:-1:-1;;;;;35417:27:0::1;35447:5;35417:27:::0;;;:18:::1;:27;::::0;;;;:35;;-1:-1:-1;;35417:35:0::1;::::0;;35350:110::o;36730:170::-;15963:12;:10;:12::i;:::-;15953:6;;-1:-1:-1;;;;;15953:6:0;;;:22;;;15945:67;;;;;-1:-1:-1;;;15945:67:0;;;;;;;;;;;;;-1:-1:-1;;;;;;;;;;;15945:67:0;;;;;;;;;;;;;;;36820:7:::1;36812:15:::0;::::1;36797:12;:30:::0;36838:15:::1;:13;:15::i;:::-;-1:-1:-1::0;36864:21:0::1;:28:::0;;-1:-1:-1;;36864:28:0::1;;;::::0;;36730:170::o;16685:244::-;15963:12;:10;:12::i;:::-;15953:6;;-1:-1:-1;;;;;15953:6:0;;;:22;;;15945:67;;;;;-1:-1:-1;;;15945:67:0;;;;;;;;;;;;;-1:-1:-1;;;;;;;;;;;15945:67:0;;;;;;;;;;;;;;;-1:-1:-1;;;;;16774:22:0;::::1;16766:73;;;;-1:-1:-1::0;;;16766:73:0::1;;;;;;;;;;;;;;;;;;;;;;;;;;;;;;;;;;;;16876:6;::::0;;16855:38:::1;::::0;-1:-1:-1;;;;;16855:38:0;;::::1;::::0;16876:6;::::1;::::0;-1:-1:-1;;;;;;;;;;;16855:38:0;::::1;16904:6;:17:::0;;-1:-1:-1;;;;;;16904:17:0::1;-1:-1:-1::0;;;;;16904:17:0;;;::::1;::::0;;;::::1;::::0;;16685:244::o;29087:106::-;29136:7;29163:8;:22;29172:12;:10;:12::i;:::-;-1:-1:-1;;;;;29163:22:0;-1:-1:-1;;;;;29163:22:0;;;;;;;;;;;;;29156:29;;29087:106;:::o;35226:112::-;35313:17;;-1:-1:-1;;;;;35313:17:0;35226:112;:::o;7982:106::-;8070:10;7982:106;:::o;40885:337::-;-1:-1:-1;;;;;40978:19:0;;40970:68;;;;-1:-1:-1;;;40970:68:0;;;;;;;;;;;;;;;;;;;;;;;;;;;;;;;;;;;;-1:-1:-1;;;;;41057:21:0;;41049:68;;;;-1:-1:-1;;;41049:68:0;;;;;;;;;;;;;;;;;;;;;;;;;;;;;;;;;;;;-1:-1:-1;;;;;41130:18:0;;;;;;;:11;:18;;;;;;;;:27;;;;;;;;;;;;;:36;;;41182:32;;;;;;;;;;;;;;;;;40885:337;;;:::o;41230:1867::-;-1:-1:-1;;;;;41352:18:0;;41344:68;;;;-1:-1:-1;;;41344:68:0;;;;;;;;;;;;;;;;;;;;;;;;;;;;;;;;;;;;-1:-1:-1;;;;;41431:16:0;;41423:64;;;;-1:-1:-1;;;41423:64:0;;;;;;;;;;;;;;;;;;;;;;;;;;;;;;;;;;;;41515:1;41506:6;:10;41498:64;;;;-1:-1:-1;;;41498:64:0;;;;;;;;;;;;;;;;;;;;;;;;;;;;;;;;;;;;-1:-1:-1;;;;;41577:26:0;;;;;;:20;:26;;;;;;;;:35;;;:72;;-1:-1:-1;;;;;;41616:24:0;;;;;;:20;:24;;;;;;;;:33;41577:72;41573:180;;;41684:12;;41674:6;:22;;41666:75;;;;-1:-1:-1;;;41666:75:0;;;;;;;;;;;;;;;;;;;;;;;;;;;;;;;;;;;;42047:28;42078:24;42096:4;42078:9;:24::i;:::-;42047:55;;42150:12;;42126:20;:36;42123:112;;-1:-1:-1;42211:12:0;;42123:112;42306:29;;42282:53;;;;;;;42364;;-1:-1:-1;42401:16:0;;;;42400:17;42364:53;:91;;;;;42442:13;-1:-1:-1;;;;;42434:21:0;:4;-1:-1:-1;;;;;42434:21:0;;;42364:91;:129;;;;-1:-1:-1;42472:21:0;;;;;;;42364:129;42346:318;;;42543:29;;42520:52;;42616:36;42631:20;42616:14;:36::i;:::-;-1:-1:-1;;;;;42872:24:0;;42745:12;42872:24;;;:18;:24;;;;;;42760:4;;42872:24;;;:50;;-1:-1:-1;;;;;;42900:22:0;;;;;;:18;:22;;;;;;;;42872:50;42869:96;;;-1:-1:-1;42948:5:0;42869:96;43051:38;43066:4;43071:2;43074:6;43081:7;43051:14;:38::i;:::-;41230:1867;;;;;;:::o;4392:192::-;4478:7;4514:12;4506:6;;;;4498:29;;;;-1:-1:-1;;;4498:29:0;;;;;;;;;;;;;;;;;;;;;;;;;;;;;;;;;;;;;;;;;;;;;;;;;;;;;;;;;;;;;;;;;;;;;;;;;;;;;;;;;;;;;;;;;;;;;;;;;;;;;;;-1:-1:-1;;;4550:5:0;;;4392:192::o;38611:163::-;38652:7;38673:15;38690;38709:19;:17;:19::i;:::-;38672:56;;-1:-1:-1;38672:56:0;-1:-1:-1;38746:20:0;38672:56;;38746:11;:20::i;:::-;38739:27;;;;38611:163;:::o;5790:132::-;5848:7;5875:39;5879:1;5882;5875:39;;;;;;;;;;;;;;;;;:3;:39::i;:::-;5868:46;5790:132;-1:-1:-1;;;5790:132:0:o;3489:181::-;3547:7;3579:5;;;3603:6;;;;3595:46;;;;;-1:-1:-1;;;3595:46:0;;;;;;;;;;;;;;;;;;;;;;;;;;;37404:419;37463:7;37472;37481;37490;37499;37508;37529:23;37554:12;37568:18;37590:20;37602:7;37590:11;:20::i;:::-;37528:82;;;;;;37622:15;37639:23;37664:12;37680:50;37692:7;37701:4;37707:10;37719;:8;:10::i;:::-;37680:11;:50::i;:::-;37621:109;;;;-1:-1:-1;37621:109:0;;-1:-1:-1;37781:15:0;;-1:-1:-1;37798:4:0;;-1:-1:-1;37804:10:0;;-1:-1:-1;37404:419:0;;-1:-1:-1;;;;;37404:419:0:o;3953:136::-;4011:7;4038:43;4042:1;4045;4038:43;;;;;;;;;;;;;;;;;:3;:43::i;4843:471::-;4901:7;5146:6;5142:47;;-1:-1:-1;5176:1:0;5169:8;;5142:47;5213:5;;;5217:1;5213;:5;:1;5237:5;;;;;:10;5229:56;;;;-1:-1:-1;;;5229:56:0;;;;;;;;;;;;;;;;;;;;;;;;;;;;;;;;;;;40099:422;40145:7;;:12;:34;;;;-1:-1:-1;40161:13:0;;:18;40145:34;:56;;;;-1:-1:-1;40183:13:0;;:18;40145:56;:72;;;;-1:-1:-1;40205:7:0;;:12;40145:72;40142:84;;;40219:7;;40142:84;40264:7;;;40246:15;:25;40306:13;;;40282:21;:37;40348:7;;;40330:15;:25;40390:13;;;40366:21;:37;-1:-1:-1;40424:11:0;;;;40446:17;;;;40474:11;;;40496:17;40099:422;:::o;40533:209::-;40587:15;;40577:7;:25;40629:21;;40613:13;:37;40671:15;;40661:7;:25;40713:21;;40697:13;:37;40533:209::o;43111:2641::-;27970:16;:23;;-1:-1:-1;;27970:23:0;27989:4;27970:23;;;:16;43262:27:::1;:20:::0;43287:1:::1;43262:24;:27::i;:::-;43247:42:::0;-1:-1:-1;43300:17:0::1;43320:30;:20:::0;43247:42;43320:24:::1;:30::i;:::-;43415:7;::::0;43399:13:::1;::::0;43383::::1;::::0;43300:50;;-1:-1:-1;43383:29:0;;;::::1;:39;43725:21;43791:22;43808:4:::0;43791:16:::1;:22::i;:::-;43944:18;43965:41;:21;43991:14:::0;43965:25:::1;:41::i;:::-;43944:62;;44101:18;44122:40;44154:7;;44122:27;44137:11;44122:10;:14;;:27;;;;:::i;:::-;:31:::0;::::1;:40::i;:::-;44101:61;;44173:18;44194:39;44225:7;;44194:26;44208:11;44194:9;:13;;:26;;;;:::i;:39::-;44173:60;;44325:24;44352:46;44384:13;;44352:27;44367:11;44352:10;:14;;:27;;;;:::i;:46::-;44325:73;;44409:24;44436:45;44467:13;;44436:26;44450:11;44436:9;:13;;:26;;;;:::i;:45::-;44409:72:::0;-1:-1:-1;44502:20:0::1;44525:48;44556:16:::0;44525:26:::1;:10:::0;44540;44525:14:::1;:26::i;:::-;:30:::0;::::1;:48::i;:::-;44502:71:::0;-1:-1:-1;44584:17:0::1;44604:47;44634:16:::0;44604:25:::1;:9:::0;44618:10;44604:13:::1;:25::i;:47::-;44725:11;::::0;:39:::1;::::0;44584:67;;-1:-1:-1;44693:9:0::1;::::0;44704:17:::1;::::0;-1:-1:-1;;;;;44725:11:0::1;::::0;44749:10;;44693:9;44725:39;44693:9;44725:39;44749:10;44725:11;:39:::1;;;;;;;;;;;;;;;;;;;;;;;;;;;;;;;;;;;;;;;;;;;;44692:72;;;;44778:4;44775:308;;;44798:92;44821:4;44828:42;44872:10;44884:5;44798:14;:92::i;:::-;44910:79;::::0;;;;;;;44934:42:::1;::::0;44927:4:::1;::::0;44910:79:::1;::::0;;;;::::1;::::0;;::::1;44775:308;;;45059:11;::::0;45022:49:::1;::::0;45035:10;;45047;;-1:-1:-1;;;;;45059:11:0::1;45022:12;:49::i;:::-;45118:17;::::0;:51:::1;::::0;-1:-1:-1;;;;;45118:17:0;;::::1;::::0;45148:16;;45118:17:::1;:51:::0;:17;:51;45148:16;45118:17;:51:::1;;;;;;;;;;;;;;;;;;;;;;;;;;;;;;;;;;;;;;;;;;;-1:-1:-1::0;45103:66:0;;-1:-1:-1;45103:66:0;-1:-1:-1;45180:338:0;::::1;;;45203:98;45226:4;45233:42;45277:16;45295:5;45203:14;:98::i;:::-;45321:85;::::0;;;;;;;45345:42:::1;::::0;45338:4:::1;::::0;45321:85:::1;::::0;;;;::::1;::::0;;::::1;45180:338;;;45488:17;::::0;45439:67:::1;::::0;45452:16;;45470;;-1:-1:-1;;;;;45488:17:0::1;45439:12;:67::i;:::-;45575:51;45588:9;45599:12;45613;:10;:12::i;:::-;45575;:51::i;:::-;45701:43;::::0;;;;;::::1;::::0;::::1;::::0;;;;;;;;;;;::::1;::::0;;;;;;;::::1;-1:-1:-1::0;;28016:16:0;:24;;-1:-1:-1;;28016:24:0;;;-1:-1:-1;;;;;;;;;;;;43111:2641:0:o;46970:834::-;47081:7;47077:40;;47103:14;:12;:14::i;:::-;-1:-1:-1;;;;;47142:19:0;;;;;;:11;:19;;;;;;;;:46;;;;-1:-1:-1;;;;;;47166:22:0;;;;;;:11;:22;;;;;;;;47165:23;47142:46;47138:597;;;47205:48;47227:6;47235:9;47246:6;47205:21;:48::i;:::-;47138:597;;;-1:-1:-1;;;;;47276:19:0;;;;;;:11;:19;;;;;;;;47275:20;:46;;;;-1:-1:-1;;;;;;47299:22:0;;;;;;:11;:22;;;;;;;;47275:46;47271:464;;;47338:46;47358:6;47366:9;47377:6;47338:19;:46::i;47271:464::-;-1:-1:-1;;;;;47407:19:0;;;;;;:11;:19;;;;;;;;47406:20;:47;;;;-1:-1:-1;;;;;;47431:22:0;;;;;;:11;:22;;;;;;;;47430:23;47406:47;47402:333;;;47470:44;47488:6;47496:9;47507:6;47470:17;:44::i;47402:333::-;-1:-1:-1;;;;;47536:19:0;;;;;;:11;:19;;;;;;;;:45;;;;-1:-1:-1;;;;;;47559:22:0;;;;;;:11;:22;;;;;;;;47536:45;47532:203;;;47598:48;47620:6;47628:9;47639:6;47598:21;:48::i;47532:203::-;47679:44;47697:6;47705:9;47716:6;47679:17;:44::i;:::-;47759:7;47755:41;;47781:15;:13;:15::i;:::-;46970:834;;;;:::o;38782:561::-;38879:7;;38915;;38832;;;;;38939:289;38963:9;:16;38959:20;;38939:289;;;39029:7;39005;:21;39013:9;39023:1;39013:12;;;;;;;;;;;;;;;;;;;;-1:-1:-1;;;;;39013:12:0;39005:21;;;;;;;;;;;;;:31;;:66;;;39064:7;39040;:21;39048:9;39058:1;39048:12;;;;;;;;;;;;;;;;;;;;-1:-1:-1;;;;;39048:12:0;39040:21;;;;;;;;;;;;;:31;39005:66;39001:97;;;39081:7;;39090;;39073:25;;;;;;;;;39001:97;39123:34;39135:7;:21;39143:9;39153:1;39143:12;;;;;;;;;;;;;;;;;;;;-1:-1:-1;;;;;39143:12:0;39135:21;;;;;;;;;;;;;39123:7;;:11;:34::i;:::-;39113:44;;39182:34;39194:7;:21;39202:9;39212:1;39202:12;;;;;;;;;;;;;;;;;;;;-1:-1:-1;;;;;39202:12:0;39194:21;;;;;;;;;;;;;39182:7;;:11;:34::i;:::-;39172:44;-1:-1:-1;38981:3:0;;38939:289;;;-1:-1:-1;39264:7:0;;39252;;:20;;:11;:20::i;:::-;39242:7;:30;39238:61;;;39282:7;;39291;;39274:25;;;;;;;;39238:61;39318:7;;-1:-1:-1;39327:7:0;-1:-1:-1;38782:561:0;;;:::o;6418:278::-;6504:7;6539:12;6532:5;6524:28;;;;-1:-1:-1;;;6524:28:0;;;;;;;;;;;;;;;;;;;;;;;;;;;;;;;;;;;;;;;;;;;;;;;;;;;;6563:9;6579:1;6575;:5;;;;;;;6418:278;-1:-1:-1;;;;;6418:278:0:o;37831:335::-;37891:7;37900;37909;37929:12;37944:24;37960:7;37944:15;:24::i;:::-;37929:39;;37979:18;38000:35;38027:7;38000:26;:35::i;:::-;37979:56;-1:-1:-1;38046:23:0;38072:33;37979:56;38072:17;:7;38084:4;38072:11;:17::i;:33::-;38046:59;38141:4;;-1:-1:-1;38147:10:0;;-1:-1:-1;37831:335:0;;-1:-1:-1;;;37831:335:0:o;38174:429::-;38289:7;;;;38345:24;:7;38357:11;38345;:24::i;:::-;38327:42;-1:-1:-1;38380:12:0;38395:21;:4;38404:11;38395:8;:21::i;:::-;38380:36;-1:-1:-1;38427:18:0;38448:27;:10;38463:11;38448:14;:27::i;:::-;38427:48;-1:-1:-1;38486:23:0;38512:33;38427:48;38512:17;:7;38524:4;38512:11;:17::i;:33::-;38564:7;;;;-1:-1:-1;38590:4:0;;-1:-1:-1;38174:429:0;;-1:-1:-1;;;;;;;38174:429:0:o;45766:589::-;45916:16;;;45930:1;45916:16;;;45892:21;45916:16;;;;;45892:21;45916:16;;;;;;;;;;-1:-1:-1;45916:16:0;45892:40;;45961:4;45943;45948:1;45943:7;;;;;;;;;;;;;:23;-1:-1:-1;;;;;45943:23:0;;;-1:-1:-1;;;;;45943:23:0;;;;;45987:15;-1:-1:-1;;;;;45987:20:0;;:22;;;;;;;;;;;;;;;;;;;;;;;;;;;;;;;;;;;;;;;;;;;;;;;;;;;;;;;;;;;;;;;-1:-1:-1;45987:22:0;45977:7;;:4;;45982:1;;45977:7;;;;;;;;;;;:32;-1:-1:-1;;;;;45977:32:0;;;-1:-1:-1;;;;;45977:32:0;;;;;46022:62;46039:4;46054:15;46072:11;46022:8;:62::i;:::-;46123:15;-1:-1:-1;;;;;46123:66:0;;46204:11;46230:1;46274:4;46301;46321:15;46123:224;;;;;;;;;;;;;;;;;;;;;;;;;;-1:-1:-1;;;;;46123:224:0;;;;;;;;;;;;;;;;;;;;;;;;;;;;;;;;;;;;;;;;;;;;;;;;;;;;;;;;;;;;;;;;;;;;;;;;;;;;;;;;;;;;;;;;;;;;;;;;;;;;;;;;;;;46363:520;46523:62;46540:4;46555:15;46573:11;46523:8;:62::i;:::-;46628:247;;;-1:-1:-1;;;46628:247:0;;46700:4;46628:247;;;;;;;;;;-1:-1:-1;46628:247:0;;;;;;;;;;-1:-1:-1;;;;;46628:247:0;;;;;;;46849:15;46628:247;;;;;;:15;:31;;;;;;46667:9;;46628:247;;;;;;;;;;;;;;46667:9;46628:31;:247;;;;;;;;;;;;;;;;;;;;;;;;;;;;;;;;;;;;;;;;;;;;;-1:-1:-1;;;;;46363:520:0:o;48916:566::-;49019:15;49036:23;49061:12;49075:23;49100:12;49114:18;49136:19;49147:7;49136:10;:19::i;:::-;-1:-1:-1;;;;;49184:15:0;;;;;;:7;:15;;;;;;49018:137;;-1:-1:-1;49018:137:0;;-1:-1:-1;49018:137:0;;-1:-1:-1;49018:137:0;-1:-1:-1;49018:137:0;-1:-1:-1;49018:137:0;-1:-1:-1;49184:28:0;;49204:7;49184:19;:28::i;:::-;-1:-1:-1;;;;;49166:15:0;;;;;;:7;:15;;;;;;;;:46;;;;49241:7;:15;;;;:28;;49261:7;49241:19;:28::i;:::-;-1:-1:-1;;;;;49223:15:0;;;;;;;:7;:15;;;;;;:46;;;;49301:18;;;;;;;:39;;49324:15;49301:22;:39::i;:::-;-1:-1:-1;;;;;49280:18:0;;;;;;:7;:18;;;;;:60;49354:26;49369:10;49354:14;:26::i;:::-;49391:23;49403:4;49409;49391:11;:23::i;:::-;49447:9;-1:-1:-1;;;;;49430:44:0;49439:6;-1:-1:-1;;;;;49430:44:0;;49458:15;49430:44;;;;;;;;;;;;;;;;;;48916:566;;;;;;;;;:::o;48322:586::-;48423:15;48440:23;48465:12;48479:23;48504:12;48518:18;48540:19;48551:7;48540:10;:19::i;:::-;-1:-1:-1;;;;;48588:15:0;;;;;;:7;:15;;;;;;48422:137;;-1:-1:-1;48422:137:0;;-1:-1:-1;48422:137:0;;-1:-1:-1;48422:137:0;-1:-1:-1;48422:137:0;-1:-1:-1;48422:137:0;-1:-1:-1;48588:28:0;;48422:137;48588:19;:28::i;:::-;-1:-1:-1;;;;;48570:15:0;;;;;;;:7;:15;;;;;;;;:46;;;;48648:18;;;;;:7;:18;;;;;:39;;48671:15;48648:22;:39::i;:::-;-1:-1:-1;;;;;48627:18:0;;;;;;:7;:18;;;;;;;;:60;;;;48719:7;:18;;;;:39;;48742:15;48719:22;:39::i;47812:502::-;47911:15;47928:23;47953:12;47967:23;47992:12;48006:18;48028:19;48039:7;48028:10;:19::i;:::-;-1:-1:-1;;;;;48076:15:0;;;;;;:7;:15;;;;;;47910:137;;-1:-1:-1;47910:137:0;;-1:-1:-1;47910:137:0;;-1:-1:-1;47910:137:0;-1:-1:-1;47910:137:0;-1:-1:-1;47910:137:0;-1:-1:-1;48076:28:0;;47910:137;48076:19;:28::i;33663:642::-;33766:15;33783:23;33808:12;33822:23;33847:12;33861:18;33883:19;33894:7;33883:10;:19::i;:::-;-1:-1:-1;;;;;33931:15:0;;;;;;:7;:15;;;;;;33765:137;;-1:-1:-1;33765:137:0;;-1:-1:-1;33765:137:0;;-1:-1:-1;33765:137:0;-1:-1:-1;33765:137:0;-1:-1:-1;33765:137:0;-1:-1:-1;33931:28:0;;33951:7;33931:19;:28::i;:::-;-1:-1:-1;;;;;33913:15:0;;;;;;:7;:15;;;;;;;;:46;;;;33988:7;:15;;;;:28;;34008:7;33988:19;:28::i;39722:154::-;39786:7;39813:55;39852:5;39813:20;39825:7;;39813;:11;;:20;;;;:::i;39884:197::-;39959:7;39986:87;40057:5;39986:52;40024:13;;40014:7;;39998:13;;:23;:39;39986:7;:11;;:52;;;;:::i;39355:355::-;39418:19;39441:10;:8;:10::i;:::-;39418:33;-1:-1:-1;39462:18:0;39483:27;:10;39418:33;39483:14;:27::i;:::-;39562:4;39546:22;;;;:7;:22;;;;;;39462:48;;-1:-1:-1;39546:38:0;;39462:48;39546:26;:38::i;:::-;39537:4;39521:22;;;;:7;:22;;;;;;;;:63;;;;39598:11;:26;;;;;;39595:107;;;39680:4;39664:22;;;;:7;:22;;;;;;:38;;39691:10;39664:26;:38::i;:::-;39655:4;39639:22;;;;:7;:22;;;;;:63;39595:107;39355:355;;;:::o;37249:147::-;37327:7;;:17;;37339:4;37327:11;:17::i;:::-;37317:7;:27;37368:10;;:20;;37383:4;37368:14;:20::i;:::-;37355:10;:33;-1:-1:-1;;37249:147:0:o

Swarm Source

ipfs://e6ea3806d9d17350fbc195987863c299ab243088485d3d8ab00ce24e7df381fb
Block Transaction Gas Used Reward
Age Block Fee Address BC Fee Address Voting Power Jailed Incoming
Block Uncle Number Difficulty Gas Used Reward
Loading
Loading
Make sure to use the "Vote Down" button for any spammy posts, and the "Vote Up" for interesting conversations.